[{"header": {"dx": 0.06612293990616946, "dy": 0.0552356325346848, "nx": 98, "ny": 59, "la1": 35.046912555036876, "la2": 31.78801023549047, "lo1": -121.43107172385933, "lo2": -114.95102361305473, "refTime": "2026041705", "parameterCategory": 1, "parameterNumber": 2}, "data": [8.77, 8.37, 8.43, 8.2, 7.57, 6.96, 6.08, 5.72, 5.09, 4.05, 3.0, 1.73, 0.0, 0.0, -0.63, -1.2, -1.2, -1.2, -1.6, -1.58, -2.23, -1.86, -1.86, -1.86, -2.21, -2.41, -1.6, -0.76, -0.61, 0.0, 0.0, 0.65, 1.24, 1.86, 2.17, 2.6, 3.07, 3.07, 2.24, 0.57, 0.0, 0.0, 1.99, 4.46, 7.9, 10.86, 12.78, 10.86, 5.86, 2.86, 3.9, 4.65, 5.43, 6.06, 6.39, 6.7, 7.32, 8.05, 8.0, 7.6, 7.35, 6.4, 6.07, 6.4, 6.4, 7.35, 8.4, 9.33, 10.32, 11.84, 11.86, 11.08, 10.25, 8.91, 8.91, 10.7, 12.05, 12.52, 12.49, 9.36, 4.92, 2.24, 0.6, 0.57, 1.6, 2.79, 4.22, 4.22, 5.75, 8.55, 10.4, 11.44, 11.5, 11.88, 11.88, 11.5, 11.26, 10.8, 9.04, 8.79, 8.16, 8.2, 7.57, 6.94, 6.31, 5.95, 5.32, 4.69, 3.42, 1.49, 0.54, 0.6, 0.0, -1.79, -1.2, -1.6, -1.26, -1.49, -2.84, -2.53, -2.6, -2.23, -1.9, -2.21, -1.88, -1.6, -1.6, -0.76, 0.0, 0.0, 0.57, 1.2, 1.7, 2.6, 3.51, 3.97, 3.07, 1.86, 0.61, 1.03, 3.3, 6.33, 9.95, 12.01, 9.56, 3.32, 2.15, 3.9, 4.65, 5.37, 5.69, 6.01, 6.35, 7.06, 7.69, 8.3, 8.63, 8.55, 7.6, 7.03, 7.03, 7.03, 7.03, 7.89, 8.82, 9.33, 10.93, 11.86, 12.3, 11.52, 10.25, 9.83, 9.83, 10.73, 12.07, 12.52, 12.49, 9.36, 4.92, 2.24, 0.6, 0.57, 1.6, 2.79, 4.22, 4.22, 5.75, 8.55, 10.4, 11.44, 11.5, 11.88, 11.88, 11.5, 11.26, 10.8, 8.79, 8.79, 8.81, 8.18, 7.95, 7.59, 6.94, 6.33, 5.7, 5.08, 3.83, 2.32, 1.16, 1.24, 0.95, 0.45, 0.0, -0.6, -0.54, -0.85, -2.15, -3.79, -5.24, -3.79, -2.53, -1.9, -1.58, -1.49, -1.74, -1.33, -1.33, -0.65, -0.71, 0.0, 0.95, 2.23, 3.32, 4.66, 4.52, 3.45, 2.73, 3.53, 5.29, 7.82, 9.6, 7.59, 3.04, 1.88, 2.98, 4.01, 4.74, 5.06, 5.37, 6.06, 5.69, 6.7, 7.69, 8.3, 8.63, 8.24, 7.67, 6.7, 7.07, 7.67, 7.6, 8.14, 9.33, 10.25, 11.36, 11.98, 12.87, 12.49, 11.18, 9.83, 8.94, 10.28, 12.07, 13.41, 11.6, 8.46, 4.47, 2.12, 1.26, 0.0, 0.7, 2.73, 4.46, 5.43, 7.03, 10.23, 11.88, 11.9, 11.54, 11.25, 11.28, 10.55, 10.28, 9.84, 8.79, 8.79, 8.81, 8.83, 8.2, 7.96, 7.59, 6.96, 6.08, 5.32, 4.45, 3.42, 1.33, 1.2, 1.26, 0.95, 0.63, 0.0, 0.0, -0.65, -0.65, -1.74, -4.11, -5.72, -5.43, -3.58, -2.4, -1.86, -1.24, -1.6, -2.4, -2.11, -2.2, -1.49, 0.0, 1.74, 2.53, 5.37, 6.08, 6.06, 6.24, 6.2, 5.41, 5.49, 5.09, 3.58, 2.86, 3.84, 3.79, 4.11, 4.43, 4.74, 5.43, 5.37, 5.37, 6.39, 7.67, 8.24, 8.24, 8.05, 7.28, 7.07, 7.67, 7.67, 8.55, 9.33, 9.83, 10.8, 11.28, 12.33, 12.77, 12.49, 10.73, 9.39, 8.01, 8.36, 10.16, 12.49, 11.6, 7.56, 4.3, 3.32, 1.49, 0.0, 0.0, 0.7, 3.35, 6.06, 8.3, 11.28, 12.52, 11.9, 10.9, 10.24, 9.62, 8.3, 8.3, 8.24, 8.79, 9.07, 8.81, 9.09, 8.57, 8.49, 8.23, 7.33, 6.33, 5.72, 4.69, 3.4, 1.49, 1.2, 1.24, 1.24, 0.99, 0.57, 0.0, 0.0, -0.76, -2.21, -2.53, -5.37, -6.07, -5.59, -3.93, -1.9, -0.71, -0.65, -0.79, -2.35, -3.8, -3.15, 0.0, 2.26, 3.2, 5.2, 6.31, 6.05, 5.94, 4.74, 3.74, 4.02, 4.87, 5.16, 4.93, 4.4, 3.84, 3.79, 3.79, 4.46, 4.11, 4.74, 5.43, 6.7, 7.03, 7.6, 8.24, 8.0, 7.42, 7.07, 7.07, 8.0, 9.08, 10.02, 10.02, 10.02, 10.25, 11.23, 12.58, 12.77, 10.98, 8.94, 7.11, 6.85, 8.14, 10.16, 11.15, 7.94, 4.93, 4.4, 3.48, 0.0, -1.7, 0.0, 3.69, 7.18, 10.18, 11.82, 11.87, 10.9, 9.9, 8.53, 6.95, 6.06, 6.7, 7.28, 8.79, 9.07, 8.81, 9.09, 8.83, 8.85, 8.22, 7.6, 6.97, 5.98, 5.09, 3.83, 2.41, 1.24, 1.24, 1.2, 1.2, 1.2, 0.61, 0.0, -1.63, -4.46, -6.32, -6.32, -5.37, -5.59, -5.06, -2.76, -1.08, 0.0, 0.0, 0.0, -1.52, -2.35, 0.0, 0.69, 1.52, 5.38, 6.42, 4.46, 2.88, 2.21, 3.07, 5.36, 6.71, 6.21, 4.93, 4.09, 3.79, 3.49, 3.22, 3.49, 3.84, 4.46, 5.09, 6.07, 6.94, 7.03, 8.0, 8.55, 7.03, 6.64, 7.6, 8.82, 9.58, 10.02, 9.26, 8.63, 8.4, 10.25, 12.14, 13.29, 12.87, 11.84, 10.25, 8.01, 6.79, 7.28, 9.26, 8.91, 5.43, 5.43, 4.65, 0.0, -0.79, 0.78, 4.87, 8.84, 10.98, 11.06, 10.12, 10.18, 9.85, 7.18, 4.01, 3.48, 6.08, 7.67, 9.47, 9.47, 9.2, 9.48, 9.21, 8.85, 8.86, 7.96, 7.61, 6.34, 5.09, 3.83, 2.3, 1.9, 2.84, 1.24, 1.4, 2.3, 2.29, 2.2, 0.72, -2.35, -7.9, -9.17, -6.98, -5.2, -5.21, -3.3, -2.21, -1.72, 0.0, 0.71, 0.54, 0.0, 0.0, 0.0, 0.74, 3.52, 4.22, 3.22, 2.0, 2.0, 2.99, 5.24, 4.98, 3.51, 3.79, 4.46, 4.11, 5.01, 4.65, 3.22, 3.84, 4.46, 5.05, 6.0, 6.0, 6.79, 7.47, 7.89, 7.47, 7.71, 8.19, 8.82, 9.26, 9.11, 8.19, 6.79, 7.21, 10.02, 11.86, 12.74, 13.09, 14.11, 12.87, 11.15, 8.91, 6.28, 6.94, 11.03, 9.49, 7.9, 6.31, 2.35, 0.79, 2.87, 6.28, 8.74, 10.43, 10.25, 9.3, 9.95, 9.4, 3.64, 1.16, 2.07, 6.39, 7.69, 9.47, 9.47, 9.48, 9.48, 9.21, 9.22, 8.86, 8.59, 7.96, 6.98, 5.72, 4.03, 3.07, 1.88, 3.79, 1.9, 1.84, 2.98, 2.66, 3.22, 3.84, 3.32, 0.54, -4.56, -7.63, -5.64, -4.54, -4.36, -4.2, -3.4, -1.14, 0.0, 0.76, 0.96, 1.45, 0.0, 0.0, 1.58, 3.2, 3.45, 1.8, 1.4, 1.4, 1.49, 0.89, 0.71, 2.15, 4.46, 4.46, 5.37, 2.5, 2.86, 3.84, 4.84, 5.34, 5.86, 6.28, 6.07, 7.45, 7.45, 7.89, 7.56, 7.56, 7.89, 7.71, 7.47, 8.14, 7.45, 8.9, 9.83, 11.62, 12.52, 12.96, 12.96, 12.49, 11.6, 11.62, 9.36, 8.82, 11.75, 14.53, 11.09, 7.73, 4.73, 3.47, 4.17, 6.24, 8.62, 9.54, 9.39, 9.16, 8.9, 5.38, 0.0, 0.0, 2.98, 6.24, 7.02, 9.47, 9.47, 9.48, 9.48, 9.49, 9.22, 8.86, 8.87, 8.24, 7.61, 6.34, 5.06, 3.17, 3.2, 3.11, 2.4, 2.88, 3.11, 2.2, 2.15, 2.98, 5.81, 7.15, 3.13, 0.0, -4.46, -4.44, -5.72, -6.4, -4.21, -1.11, 0.0, 1.02, 1.04, 0.0, 0.0, 0.0, 1.1, 1.84, 0.76, 0.0, 0.0, 0.0, 0.0, -0.0, -0.0, 1.26, 2.23, 3.45, 3.84, 5.24, 3.49, 4.09, 4.8, 5.34, 5.59, 6.21, 6.66, 7.11, 7.15, 7.15, 6.71, 5.77, 5.16, 5.75, 8.4, 10.02, 9.36, 9.39, 9.72, 11.06, 11.99, 12.49, 12.05, 11.15, 10.62, 11.06, 11.52, 12.14, 12.72, 13.99, 12.9, 8.19, 5.77, 4.84, 5.71, 6.32, 8.74, 9.16, 8.58, 7.67, 4.28, 0.0, -1.9, 0.0, 4.03, 6.14, 5.94, 9.47, 9.48, 9.48, 9.48, 9.49, 9.22, 9.21, 8.87, 8.59, 8.24, 7.33, 6.7, 5.95, 4.6, 3.32, 3.15, 3.32, 3.21, 2.17, 2.06, 2.06, 3.17, 5.24, 5.94, 2.21, 0.0, -3.22, -6.32, -6.71, -3.11, 0.0, 0.0, 0.0, -0.96, -2.12, 0.0, 0.65, 0.71, 0.0, 0.0, -0.45, 0.45, 0.0, 0.0, 0.0, 0.45, 0.89, 1.2, 1.86, 2.84, 3.84, 3.79, 4.46, 4.4, 4.66, 4.87, 5.36, 6.26, 6.21, 6.21, 5.36, 4.41, 5.2, 4.22, 6.0, 7.71, 9.11, 8.84, 8.01, 8.63, 9.75, 10.8, 11.42, 10.52, 9.89, 9.68, 10.68, 11.62, 12.22, 12.92, 14.31, 12.92, 7.28, 4.96, 4.8, 5.77, 6.87, 7.6, 8.38, 7.09, 4.67, 0.54, -1.24, -1.33, 1.52, 5.28, 6.31, 4.56, 9.48, 9.48, 9.48, 9.84, 9.84, 9.49, 9.5, 9.21, 8.87, 8.59, 8.24, 8.24, 7.33, 6.08, 4.12, 3.27, 3.45, 3.49, 3.45, 3.53, 2.28, 1.64, 1.69, 2.4, 3.0, 0.0, -0.85, -2.21, -3.22, -2.06, -0.88, -1.24, -1.79, -2.4, -2.51, -1.66, 0.0, 0.45, 0.45, 0.0, -0.0, -0.0, 0.89, 1.79, 1.79, 0.45, 0.45, 0.6, 0.71, 1.4, 2.07, 3.07, 3.84, 3.83, 3.74, 3.95, 4.41, 4.02, 3.95, 2.68, 1.86, 2.84, 3.72, 4.43, 5.77, 6.7, 7.06, 6.7, 5.59, 5.77, 6.98, 8.24, 8.67, 8.48, 8.25, 9.05, 9.7, 9.9, 10.28, 11.34, 12.72, 12.66, 6.36, 3.69, 3.7, 4.96, 6.44, 6.81, 7.15, 5.59, 3.48, 0.71, -0.65, 0.0, 2.35, 5.51, 5.28, 1.49, 9.48, 9.48, 9.48, 9.84, 10.13, 9.84, 9.84, 9.21, 9.5, 8.87, 8.59, 8.58, 8.24, 7.32, 6.34, 5.08, 4.43, 4.75, 5.1, 5.72, 5.72, 4.45, 2.75, 2.09, 1.19, 1.27, 0.0, 0.0, -1.34, -3.2, -3.2, -2.24, -2.4, -2.63, -2.68, -2.5, -1.49, -0.89, 0.45, -0.0, 0.6, 0.6, 1.2, 2.24, 1.34, 0.45, -0.0, -0.0, -0.0, -0.0, 0.65, 1.2, 2.15, 2.84, 2.84, 2.84, 3.84, 2.8, 0.89, -0.0, -0.0, 2.4, 3.91, 3.09, 4.0, 4.68, 6.21, 6.45, 5.49, 5.43, 6.13, 6.11, 5.81, 5.16, 6.07, 8.05, 8.67, 8.32, 9.19, 9.7, 9.74, 8.8, 2.68, 0.79, 2.06, 4.28, 5.7, 5.7, 5.78, 4.94, 3.55, 1.33, 0.0, 0.0, 2.97, 4.68, 2.35, 0.0, 9.48, 9.48, 9.84, 10.13, 10.13, 9.84, 10.13, 9.84, 9.5, 9.21, 9.19, 8.58, 8.24, 7.93, 7.59, 6.87, 5.78, 5.86, 6.15, 7.35, 8.0, 9.2, 8.28, 6.4, 5.09, 3.87, 3.07, 2.24, 0.8, -2.63, -3.07, -2.68, -2.6, -2.6, -1.86, -1.7, -1.6, -0.6, -0.0, -0.0, -0.0, -0.0, 0.63, 0.45, 0.0, -0.63, -0.8, -0.8, -0.0, -0.0, -0.0, 0.8, 1.58, 1.2, 1.6, 1.58, 1.74, 3.93, 1.34, -0.8, -0.79, 1.58, 2.31, 2.31, 1.54, 2.41, 4.32, 5.6, 5.86, 6.2, 7.08, 7.02, 5.86, 4.02, 5.34, 7.6, 7.07, 6.07, 5.69, 5.6, 4.93, 4.41, 2.17, 0.0, 0.0, 3.8, 5.52, 4.96, 4.28, 4.14, 3.47, 1.41, 0.63, 1.52, 3.88, 3.06, 0.66, 0.0, 9.48, 10.13, 10.13, 10.13, 10.13, 9.84, 10.13, 10.13, 10.13, 9.82, 9.5, 8.87, 8.56, 7.93, 7.9, 8.15, 7.17, 7.35, 7.35, 7.9, 9.1, 10.55, 11.41, 11.39, 10.34, 9.11, 7.4, 6.23, 4.47, 2.68, 0.45, -0.45, -2.68, -1.2, -0.95, -0.6, -0.57, -0.0, -0.0, -0.0, 0.0, 0.0, 0.45, 0.0, 0.89, -1.58, -1.26, -0.95, -0.89, -0.89, -0.45, 0.45, 0.0, 0.0, 0.0, 0.0, 0.0, 2.68, 4.02, -0.0, -1.55, -0.0, 2.09, 1.07, 1.58, 2.23, 2.83, 3.88, 5.45, 5.64, 7.36, 7.27, 6.44, 4.87, 5.31, 5.86, 3.04, 2.24, 3.13, 3.13, 3.58, 4.41, 3.74, 1.49, 0.0, 3.06, 5.28, 3.8, 3.6, 3.4, 2.9, 1.3, 1.36, 2.4, 3.44, 2.4, 0.7, 0.0, 10.13, 10.13, 10.13, 10.13, 9.84, 10.13, 10.13, 10.13, 10.13, 9.82, 9.8, 9.17, 8.85, 8.53, 8.5, 8.5, 8.45, 8.15, 8.29, 8.93, 9.76, 10.83, 11.75, 12.51, 12.53, 11.56, 10.47, 9.23, 8.03, 6.26, 5.36, 3.58, 2.68, 1.34, -0.0, -0.0, -0.0, -0.0, 1.2, 0.45, 0.45, 1.58, 1.58, 0.0, 0.45, -1.2, -1.6, -1.2, -2.24, -0.89, -0.89, 0.0, 0.0, 0.0, 0.0, 0.0, 0.0, 2.8, 5.77, 1.98, -0.76, -0.0, 1.23, 1.23, 1.23, 2.49, 2.66, 2.49, 4.02, 3.45, 5.3, 7.07, 6.4, 3.51, 3.07, 1.79, 1.86, 4.22, 4.8, 5.59, 5.31, 4.92, 4.24, 2.79, 1.3, 2.35, 4.0, 3.09, 2.99, 2.99, 2.9, 2.12, 2.18, 2.75, 4.0, 2.2, 0.89, 0.89, 9.84, 9.84, 9.84, 9.84, 10.13, 10.13, 10.13, 10.45, 10.43, 10.12, 9.8, 9.48, 9.17, 9.13, 8.82, 8.82, 9.08, 9.02, 9.3, 9.76, 10.3, 11.08, 12.11, 12.33, 12.6, 12.51, 12.18, 11.49, 10.67, 9.82, 8.49, 7.6, 5.81, 4.47, 1.9, -0.0, -0.0, 0.65, 1.6, 1.79, 0.63, 1.2, 2.4, 2.24, -0.0, -1.4, -2.23, -1.6, -0.0, -0.0, 1.34, 0.0, 0.0, 0.45, 0.45, 0.45, 1.6, 2.54, 3.9, 3.49, 1.66, 1.19, 2.73, 1.41, 1.27, 1.41, 0.88, 1.19, 2.6, 3.22, 4.4, 6.21, 4.02, 2.12, 0.63, 1.24, 3.64, 6.39, 6.7, 6.44, 6.44, 5.34, 3.13, 2.23, 1.49, 0.73, 1.55, 0.74, 1.58, 3.06, 3.15, 2.06, 2.17, 3.37, 5.09, 4.94, 2.24, 2.24, 9.84, 9.84, 10.13, 10.13, 10.45, 10.45, 10.45, 10.43, 10.13, 10.12, 9.8, 10.09, 9.77, 9.46, 9.13, 9.42, 9.42, 9.66, 9.94, 10.41, 10.83, 11.6, 12.33, 12.11, 12.51, 13.1, 13.65, 13.3, 12.84, 12.46, 11.12, 10.22, 7.97, 6.26, 1.79, 1.26, 1.24, 1.58, 1.6, 3.13, 1.9, 0.6, 2.68, 0.89, -0.0, -0.0, -1.27, -0.0, -0.0, -0.0, -0.0, 1.58, 1.9, 1.9, 2.8, 3.58, 4.02, 4.77, 3.79, 3.76, 3.49, 3.79, 3.72, 1.4, -0.0, -0.0, -0.0, -0.0, 1.4, 4.77, 6.17, 5.6, 2.84, 1.24, 0.45, 0.79, 4.0, 7.08, 7.9, 6.64, 5.59, 5.46, 3.32, 2.24, 0.71, 0.0, 0.0, 0.0, 2.35, 3.88, 3.7, 2.12, 2.11, 4.15, 6.31, 7.15, 3.58, 3.58, 9.84, 10.13, 10.13, 10.45, 10.45, 10.45, 10.75, 10.43, 10.13, 10.12, 10.12, 10.09, 9.77, 10.06, 9.72, 9.66, 10.01, 10.01, 10.15, 10.41, 11.36, 12.11, 12.33, 11.87, 12.75, 13.74, 14.11, 14.11, 13.65, 13.1, 12.3, 10.94, 9.68, 7.97, 5.78, 3.13, 2.24, 2.24, 2.24, 2.54, 2.12, 1.6, 1.2, 1.2, 1.79, -0.0, -0.0, -0.0, -0.0, 1.13, 1.13, 2.84, 2.84, 2.84, 2.84, 3.72, 4.09, 4.29, 4.11, 4.11, 4.65, 4.65, 4.09, -0.0, -1.19, -0.88, -0.0, -0.0, 2.68, 5.75, 7.81, 6.0, 4.24, 3.58, 3.32, 2.73, 4.56, 8.68, 9.3, 7.69, 5.46, 4.8, 4.41, 1.58, 0.0, 0.0, 0.7, 0.0, 1.49, 2.31, 2.4, 2.18, 2.11, 4.24, 7.01, 7.9, 6.22, 6.22, 10.13, 10.13, 10.13, 10.45, 10.45, 10.75, 10.75, 10.43, 10.12, 10.12, 9.8, 10.09, 10.09, 10.06, 10.06, 9.62, 9.42, 9.94, 9.86, 10.83, 12.11, 12.79, 12.28, 11.09, 10.43, 12.51, 11.56, 11.45, 10.95, 11.08, 10.81, 10.47, 9.23, 8.42, 7.51, 6.16, 5.7, 5.09, 3.74, 2.97, 2.4, 2.54, 2.12, 4.02, 3.39, 2.84, 2.23, 2.23, 2.23, 2.23, 2.23, 2.48, 2.23, 2.48, 2.73, 3.22, 3.79, 3.79, 4.65, 4.65, 4.8, 4.09, 2.84, -0.0, -0.0, -0.0, -0.0, 1.98, 3.58, 6.61, 9.32, 12.05, 15.12, 15.91, 13.49, 8.82, 6.71, 8.05, 9.39, 8.46, 5.36, 5.77, 4.24, 2.5, 0.65, 0.53, 0.61, 1.2, 1.47, 0.59, 0.7, 2.35, 3.06, 4.23, 6.2, 7.6, 6.98, 6.98, 10.13, 10.13, 10.13, 10.45, 10.45, 10.75, 10.75, 10.43, 10.4, 10.4, 9.8, 10.09, 10.09, 10.36, 10.36, 10.01, 9.94, 9.37, 8.65, 9.3, 11.44, 12.54, 11.9, 10.9, 9.92, 10.23, 10.15, 10.42, 10.42, 9.86, 9.11, 8.77, 8.41, 7.97, 7.07, 6.61, 6.6, 6.6, 6.6, 6.16, 6.16, 6.23, 6.23, 6.26, 5.7, 5.4, 4.4, 4.09, 3.72, 3.16, 2.48, 2.48, 2.48, 2.48, 1.24, 1.2, 3.76, 2.84, 2.86, 4.4, 3.82, 2.21, -0.0, -0.0, -0.0, -0.0, 0.88, 2.76, 4.84, 7.21, 10.16, 13.96, 18.52, 20.95, 19.22, 15.01, 10.8, 9.0, 8.55, 7.21, 6.98, 6.98, 6.07, 3.13, 2.24, 2.17, 2.24, 2.17, 1.86, 1.6, 1.49, 2.73, 4.29, 4.65, 4.73, 6.26, 7.01, 7.01, 10.13, 10.13, 10.13, 10.45, 10.75, 10.75, 10.75, 10.72, 10.72, 10.4, 10.69, 10.36, 10.36, 10.36, 10.36, 10.3, 10.23, 9.66, 9.42, 9.92, 10.91, 11.44, 11.72, 11.62, 11.88, 11.75, 11.12, 10.49, 10.34, 9.54, 8.77, 8.41, 7.97, 7.51, 7.06, 6.61, 6.61, 6.61, 6.61, 7.13, 7.13, 7.6, 7.6, 7.6, 7.13, 6.61, 5.7, 4.8, 4.09, 3.72, 3.72, 3.35, 2.84, 2.48, 2.2, 1.2, 2.3, 3.48, 4.29, 3.2, 1.58, -0.0, -0.0, -1.19, -0.0, -0.0, 0.81, 2.29, 4.65, 6.39, 8.32, 11.83, 15.41, 16.99, 17.0, 15.49, 10.7, 9.22, 7.82, 6.7, 7.21, 7.56, 7.15, 6.11, 5.34, 3.32, 2.8, 3.32, 4.3, 3.58, 3.32, 3.84, 5.09, 4.09, 3.32, 4.02, 5.32, 5.32, 9.84, 9.84, 9.84, 10.43, 10.75, 10.75, 10.43, 10.72, 10.72, 10.4, 10.69, 10.69, 10.36, 10.36, 10.65, 10.65, 10.59, 10.94, 11.23, 11.8, 11.72, 10.96, 10.68, 11.22, 11.75, 12.33, 12.6, 12.04, 11.4, 10.6, 10.13, 9.32, 8.86, 7.97, 7.51, 7.06, 6.61, 6.61, 6.61, 7.13, 7.13, 7.58, 7.6, 7.6, 7.15, 6.68, 6.61, 5.26, 4.34, 4.24, 3.82, 3.35, 2.84, 2.23, 1.19, 2.4, 1.41, 3.11, 3.45, 1.6, -0.0, -0.87, -0.73, -0.0, -0.0, -0.0, -0.0, 0.76, 2.35, 2.21, 3.3, 6.7, 10.55, 10.62, 4.65, 6.44, 8.25, 8.35, 7.77, 6.36, 6.7, 6.79, 6.71, 6.07, 6.07, 4.66, 3.51, 3.13, 4.87, 6.26, 5.94, 4.66, 4.09, 3.32, 2.63, 3.13, 4.47, 4.47, 9.84, 9.84, 9.84, 10.13, 10.43, 10.43, 10.43, 10.72, 10.72, 10.4, 10.69, 10.69, 10.36, 10.65, 10.65, 10.65, 10.88, 11.23, 11.8, 12.37, 12.54, 11.75, 11.08, 10.68, 11.31, 11.92, 12.6, 12.78, 12.64, 12.18, 11.4, 10.6, 10.14, 9.23, 8.33, 7.97, 7.51, 7.07, 7.07, 7.07, 7.58, 7.58, 7.58, 7.15, 7.15, 6.26, 6.71, 5.36, 4.47, 3.82, 3.82, 3.35, 2.84, 2.23, 1.41, 1.19, 0.7, 1.47, 2.16, 1.49, -0.0, -0.88, -0.0, -0.0, -0.0, -0.0, 0.81, 0.73, 0.88, -0.0, -0.0, 1.13, 8.36, 2.6, -2.68, -0.66, 2.18, 4.92, 6.48, 7.03, 6.11, 6.06, 5.86, 5.77, 5.31, 3.97, 3.51, 3.74, 5.05, 5.16, 5.44, 3.51, 3.07, 3.13, 3.13, 4.02, 4.02, 4.02, 10.13, 10.13, 10.13, 10.13, 10.43, 10.43, 10.43, 10.72, 10.72, 10.72, 10.69, 10.69, 10.69, 10.65, 10.65, 10.88, 11.23, 11.44, 11.8, 12.27, 12.54, 12.03, 11.99, 11.6, 11.41, 11.82, 12.11, 12.78, 12.94, 12.46, 12.18, 11.84, 10.94, 10.47, 9.68, 9.23, 8.33, 8.41, 7.97, 7.97, 8.03, 7.58, 7.58, 7.15, 6.71, 6.26, 6.71, 5.36, 4.47, 4.24, 4.24, 4.24, 3.35, 2.53, 1.27, 1.27, -0.0, -0.0, -0.0, 2.2, 1.33, -0.0, -0.0, -0.0, -0.0, -0.0, 0.81, 1.3, -0.0, -0.0, -0.0, 7.31, 12.07, 11.87, 8.99, 4.98, 3.13, 2.32, 4.18, 5.6, 6.44, 6.87, 6.98, 6.96, 6.07, 4.46, 4.46, 3.79, 3.07, 2.5, 4.41, 4.0, 4.73, 4.47, 3.58, 3.97, 3.58, 3.58, 10.13, 10.13, 10.13, 10.13, 10.13, 10.43, 10.72, 10.72, 10.72, 10.72, 10.69, 10.94, 10.94, 10.69, 11.23, 11.23, 11.23, 11.44, 11.72, 11.72, 12.16, 12.42, 12.28, 11.88, 12.11, 11.82, 12.11, 12.3, 12.3, 12.04, 12.18, 11.71, 11.28, 10.94, 10.47, 10.01, 9.68, 9.23, 8.79, 8.86, 8.42, 8.47, 8.03, 8.05, 7.6, 7.15, 6.71, 6.26, 5.78, 5.33, 4.77, 5.26, 4.34, 3.82, 2.53, 1.13, -0.0, -0.57, -0.0, 1.2, 1.98, 0.85, -0.0, -0.0, -0.0, -0.0, -0.0, 0.79, 0.88, 1.9, 3.95, 7.71, 12.96, 15.41, 16.85, 16.55, 13.74, 7.89, 4.74, 3.78, 6.14, 7.67, 8.49, 8.57, 7.06, 4.46, 4.4, 3.07, 2.12, 1.35, 3.55, 6.35, 7.73, 7.11, 3.97, 2.4, 1.79, 1.79, 10.13, 10.13, 10.13, 10.43, 10.43, 10.72, 10.4, 10.4, 10.4, 10.4, 10.69, 10.94, 10.94, 10.94, 11.23, 11.23, 11.44, 11.44, 11.72, 11.99, 12.16, 12.42, 12.03, 12.28, 12.51, 12.11, 11.92, 12.11, 11.87, 12.04, 11.99, 11.71, 11.71, 11.24, 10.94, 10.47, 10.01, 9.68, 9.68, 9.23, 9.32, 8.87, 8.86, 8.47, 8.03, 7.6, 7.6, 7.15, 6.71, 6.26, 5.79, 5.33, 5.36, 4.47, 3.39, 2.53, -0.0, -1.6, -1.4, -0.0, 2.23, 0.99, -0.0, -0.0, -0.0, -0.0, -0.0, 0.87, 2.53, 3.22, 4.92, 7.6, 10.7, 13.78, 15.49, 15.72, 15.39, 13.84, 5.77, 2.4, 4.75, 7.03, 9.02, 8.49, 6.98, 5.43, 5.64, 4.02, 2.5, 1.84, 2.53, 6.98, 9.45, 9.15, 4.47, 1.79, 1.2, 1.2, 10.43, 10.43, 10.43, 10.43, 10.72, 10.4, 10.4, 10.4, 10.4, 10.4, 10.69, 10.69, 10.94, 10.94, 10.94, 11.8, 11.8, 11.44, 11.72, 11.99, 11.62, 12.03, 12.03, 12.28, 12.28, 12.51, 12.33, 12.11, 12.11, 11.87, 11.99, 11.99, 11.56, 11.28, 11.24, 10.94, 10.47, 10.04, 10.01, 9.57, 9.68, 9.23, 9.23, 8.87, 8.92, 8.47, 8.05, 7.6, 7.15, 7.15, 6.71, 6.26, 5.81, 4.92, 2.68, 1.7, 1.2, -1.2, -1.26, -0.8, -0.0, 0.81, 1.14, -0.0, -0.0, -0.0, -0.0, 1.0, 2.53, 3.6, 5.36, 6.71, 8.94, 11.06, 11.62, 13.04, 14.17, 12.66, 7.15, 1.41, 1.62, 5.2, 7.85, 7.8, 6.64, 6.35, 6.94, 3.97, 2.91, 2.5, 2.91, 5.32, 10.02, 10.02, 7.48, 3.82, 3.07, 3.07, 10.43, 10.43, 10.43, 10.72, 10.4, 10.4, 10.4, 10.4, 10.4, 10.4, 10.69, 10.69, 10.94, 10.94, 11.23, 11.8, 11.8, 11.44, 11.72, 11.72, 11.62, 11.88, 12.03, 12.28, 12.28, 12.51, 12.11, 12.33, 11.92, 12.11, 12.3, 11.87, 11.99, 11.56, 11.24, 10.81, 10.47, 10.47, 10.04, 10.01, 9.57, 9.68, 9.23, 8.87, 8.86, 8.47, 8.47, 8.03, 8.03, 7.6, 7.15, 6.71, 6.26, 5.81, 4.92, 2.24, 2.4, -0.0, -1.26, -0.99, -0.0, -0.0, -0.0, -0.0, -0.0, -0.0, 0.71, 0.45, 0.63, 2.68, 4.92, 6.71, 8.01, 8.46, 9.83, 12.04, 13.32, 11.6, 6.26, 1.24, 0.0, 2.77, 5.64, 7.02, 7.22, 6.95, 5.36, 3.07, 3.58, 3.51, 3.13, 3.58, 9.36, 10.52, 9.68, 8.4, 7.85, 7.85, 10.43, 10.43, 10.72, 10.72, 10.4, 10.4, 10.4, 10.69, 10.69, 10.69, 10.69, 10.69, 10.69, 10.94, 11.23, 11.8, 11.8, 11.44, 11.72, 11.72, 11.62, 11.62, 12.03, 12.03, 12.28, 12.51, 12.11, 12.33, 11.92, 12.11, 12.11, 12.3, 11.81, 11.56, 11.13, 11.24, 10.81, 10.34, 10.47, 10.04, 10.01, 9.57, 9.23, 7.89, 7.11, 8.05, 8.47, 8.42, 8.41, 8.03, 7.58, 7.13, 7.13, 6.68, 5.78, 4.43, 3.13, -0.0, -0.0, -0.71, -0.54, -0.0, -0.0, -0.0, -0.0, -0.0, 0.82, -0.0, 0.0, 0.0, 3.9, 7.21, 8.46, 8.36, 9.65, 12.27, 12.47, 10.95, 8.91, 4.47, 0.65, 0.55, 3.49, 5.08, 5.64, 4.75, 2.8, 2.68, 3.13, 3.13, 2.6, 2.4, 4.93, 9.46, 9.86, 10.0, 9.32, 9.32, 10.43, 10.43, 10.72, 10.72, 10.4, 10.4, 10.69, 10.69, 10.69, 10.69, 10.69, 10.69, 10.69, 10.94, 11.23, 11.44, 11.44, 11.72, 11.72, 11.72, 11.62, 11.62, 11.62, 11.88, 12.28, 11.88, 12.11, 12.33, 12.33, 12.11, 12.11, 12.11, 11.87, 11.81, 11.56, 11.08, 10.66, 10.81, 10.34, 10.34, 10.04, 10.01, 9.57, 8.79, 7.97, 7.12, 8.01, 7.87, 7.84, 7.4, 7.51, 7.51, 7.58, 7.13, 6.61, 5.7, 3.98, 2.68, 0.6, -0.0, -0.57, -0.0, -0.0, -0.0, -0.0, -0.78, -0.0, 1.05, -0.0, 0.45, 2.21, 6.44, 11.2, 13.21, 12.58, 12.51, 12.52, 11.2, 11.4, 12.07, 8.01, 2.22, 1.7, 2.84, 3.72, 3.13, 3.07, 4.02, 4.02, 3.58, 2.4, 2.86, 5.6, 7.89, 9.34, 10.13, 10.13, 10.13, 10.43, 10.43, 10.72, 10.72, 10.4, 10.69, 10.69, 10.69, 10.69, 10.69, 10.69, 10.69, 10.69, 11.23, 11.23, 11.23, 11.44, 11.72, 11.72, 11.72, 11.99, 11.62, 11.62, 11.88, 12.14, 11.75, 12.11, 12.33, 12.11, 12.53, 12.53, 12.11, 12.11, 11.81, 11.39, 11.08, 11.08, 10.66, 10.77, 10.34, 10.34, 10.04, 9.57, 9.11, 8.64, 8.14, 7.89, 7.87, 7.4, 6.94, 6.94, 7.06, 7.06, 7.07, 7.06, 6.61, 5.26, 4.02, 2.63, 0.6, -0.0, -0.0, -0.0, -0.0, -0.76, -1.7, -0.78, 1.25, 4.46, 2.21, 1.74, 4.58, 9.3, 14.95, 17.91, 14.57, 10.9, 9.92, 10.4, 14.4, 16.03, 12.44, 6.04, 3.87, 4.47, 6.23, 7.52, 7.48, 7.01, 6.11, 5.44, 4.93, 5.44, 7.98, 9.18, 10.38, 10.79, 10.79, 10.43, 10.43, 10.72, 10.72, 10.4, 10.69, 10.69, 10.69, 10.69, 10.94, 10.94, 10.94, 10.94, 11.23, 11.23, 11.23, 11.44, 11.72, 11.72, 11.35, 11.62, 11.62, 11.62, 11.88, 11.5, 11.75, 11.99, 11.6, 11.62, 11.62, 12.11, 12.11, 12.11, 11.81, 11.39, 11.39, 11.08, 11.08, 10.66, 10.77, 10.34, 10.34, 10.01, 9.57, 9.54, 9.43, 9.57, 9.23, 8.33, 7.4, 7.4, 7.06, 7.06, 7.06, 7.06, 7.06, 6.6, 5.26, 4.02, 2.6, 0.63, -0.0, -0.0, -0.0, -0.0, -0.76, -0.85, -0.0, 3.76, 5.93, 4.43, 4.43, 7.07, 12.79, 19.37, 19.97, 10.93, 4.65, 6.39, 11.06, 14.93, 15.65, 13.84, 11.16, 11.16, 11.16, 11.61, 11.61, 11.06, 9.62, 8.71, 7.76, 7.28, 8.24, 9.26, 10.6, 11.09, 11.09, 10.43, 10.43, 10.72, 10.72, 10.4, 10.69, 10.69, 10.69, 10.94, 10.94, 11.23, 11.23, 11.23, 11.23, 11.23, 11.23, 11.44, 11.72, 11.72, 11.35, 11.62, 11.62, 11.62, 11.88, 11.5, 11.75, 11.75, 11.99, 11.6, 11.09, 10.71, 11.21, 11.81, 11.81, 11.39, 11.39, 10.91, 11.08, 10.66, 10.66, 10.77, 10.34, 10.34, 9.86, 10.01, 10.01, 10.01, 9.68, 9.23, 8.77, 8.3, 7.87, 7.51, 7.51, 7.07, 7.51, 7.51, 6.47, 5.24, 4.02, 2.17, -0.0, -0.0, -0.0, -0.0, -0.0, -0.0, -0.0, 2.84, 4.65, 4.74, 4.84, 6.94, 11.15, 18.26, 23.47, 16.37, 6.71, 3.45, 7.56, 10.98, 13.41, 14.74, 15.58, 15.19, 15.65, 15.2, 14.3, 13.41, 10.7, 10.16, 9.28, 9.28, 8.84, 10.18, 10.75, 11.28, 11.28, 10.43, 10.43, 10.72, 10.72, 10.72, 10.69, 10.69, 10.94, 10.94, 11.23, 11.23, 11.23, 11.23, 11.23, 11.23, 11.23, 11.72, 11.72, 11.35, 11.35, 11.62, 11.62, 11.62, 11.5, 11.5, 11.75, 11.75, 11.88, 12.28, 11.82, 11.62, 11.12, 11.39, 11.39, 11.39, 11.39, 11.33, 11.08, 11.08, 10.66, 10.6, 10.34, 10.34, 10.34, 9.86, 10.01, 10.01, 9.57, 9.68, 9.23, 8.79, 8.77, 8.3, 7.97, 7.97, 7.51, 7.51, 7.51, 6.04, 5.33, 1.9, -0.0, -0.0, -0.0, -0.0, 0.81, 0.81, 0.88, 1.55, 2.8, 4.16, 5.59, 7.97, 11.18, 16.09, 20.43, 21.15, 17.47, 13.56, 12.07, 11.89, 12.79, 14.23, 15.63, 16.09, 15.65, 15.65, 14.75, 12.96, 10.28, 8.05, 8.46, 8.49, 9.39, 9.39, 11.09, 11.99, 11.99, 10.72, 10.72, 10.72, 10.72, 10.72, 10.69, 10.69, 10.94, 10.94, 11.23, 11.23, 11.23, 11.23, 11.23, 11.23, 11.72, 11.72, 11.72, 11.35, 11.62, 11.62, 11.62, 11.62, 11.5, 11.5, 11.5, 11.75, 11.75, 11.88, 12.11, 11.82, 11.62, 11.62, 11.62, 11.39, 11.39, 11.33, 11.08, 11.08, 10.66, 10.6, 10.6, 10.34, 10.34, 10.34, 10.34, 10.01, 10.01, 9.57, 9.54, 9.23, 9.23, 8.79, 8.77, 8.33, 8.41, 7.97, 7.97, 7.51, 7.15, 3.53, 1.4, -0.0, -0.0, 1.14, 1.3, 1.83, 0.88, -0.0, 1.72, 3.79, 5.69, 9.21, 12.42, 14.3, 16.02, 17.47, 18.04, 19.25, 18.82, 15.65, 13.25, 12.66, 12.22, 12.88, 12.95, 12.52, 11.62, 8.94, 7.15, 4.47, 3.58, 5.36, 6.66, 7.12, 7.57, 10.73, 10.73, 10.72, 10.72, 10.72, 10.72, 10.72, 10.69, 10.69, 10.94, 10.94, 11.23, 11.23, 11.23, 11.23, 11.52, 11.52, 11.72, 11.72, 11.72, 11.35, 11.62, 11.62, 11.62, 11.24, 11.5, 11.5, 11.5, 11.5, 11.75, 11.75, 11.99, 11.6, 11.82, 11.82, 11.62, 11.62, 11.39, 11.33, 10.91, 11.08, 10.66, 10.6, 10.6, 10.34, 10.34, 10.34, 10.34, 10.34, 10.01, 10.01, 9.57, 9.11, 9.11, 9.23, 9.23, 8.79, 8.77, 8.42, 8.42, 8.47, 8.05, 7.6, 4.11, 2.48, 0.7, 1.55, 2.4, 2.68, 0.79, -0.0, 0.76, 3.45, 4.95, 9.1, 11.62, 13.67, 12.94, 13.21, 15.41, 18.65, 20.7, 19.17, 14.75, 11.18, 9.36, 8.46, 8.49, 8.05, 6.26, 4.92, 4.02, 3.13, 2.24, 2.24, 4.02, 5.77, 6.66, 8.46, 8.46, 10.72, 10.72, 10.72, 10.72, 10.72, 10.69, 10.94, 10.94, 10.94, 11.23, 11.23, 11.23, 11.23, 11.52, 11.72, 11.72, 11.72, 11.72, 11.62, 11.62, 11.62, 11.62, 11.5, 11.5, 11.5, 11.5, 11.5, 11.75, 11.75, 11.6, 11.6, 11.82, 11.82, 11.41, 11.62, 11.21, 11.33, 11.33, 10.91, 10.91, 10.6, 10.6, 9.7, 9.54, 9.11, 9.86, 10.34, 9.91, 9.86, 9.43, 9.54, 9.11, 9.11, 9.23, 9.23, 9.23, 8.77, 8.86, 8.47, 8.49, 8.05, 6.94, 4.65, 2.3, 2.53, 4.11, 3.16, 1.66, -0.0, -0.0, 1.72, 3.2, 6.95, 12.45, 15.1, 12.87, 10.28, 12.96, 17.86, 19.67, 18.76, 15.96, 13.25, 11.09, 8.91, 8.02, 7.57, 6.26, 4.47, 4.02, 3.58, 3.13, 3.13, 5.36, 6.26, 6.71, 7.6, 7.57, 10.72, 10.72, 10.72, 10.72, 10.72, 10.69, 10.94, 10.94, 10.94, 11.23, 11.23, 11.23, 11.23, 11.72, 11.72, 11.72, 11.72, 11.99, 11.62, 11.62, 11.62, 11.62, 11.5, 11.5, 11.5, 11.5, 11.5, 11.75, 11.36, 11.36, 11.6, 11.6, 11.82, 11.82, 11.41, 11.62, 11.12, 11.12, 10.91, 10.91, 10.42, 10.6, 9.7, 9.11, 9.11, 10.01, 10.29, 9.7, 9.86, 9.86, 9.39, 9.54, 9.11, 9.11, 9.23, 9.23, 9.23, 8.87, 8.47, 8.49, 8.03, 6.94, 6.36, 3.48, 3.48, 3.79, 4.11, 1.7, -0.0, -0.0, -0.0, 1.18, 5.44, 11.5, 16.24, 15.9, 11.52, 11.4, 14.13, 15.69, 14.69, 13.41, 13.34, 11.89, 10.52, 10.08, 10.08, 9.72, 8.82, 8.01, 6.26, 4.47, 4.47, 8.05, 8.46, 8.91, 8.91, 7.6, 10.72, 10.72, 10.72, 10.72, 10.72, 11.03, 10.94, 10.94, 10.94, 11.23, 11.23, 11.23, 11.23, 11.72, 11.72, 11.72, 11.72, 11.72, 11.99, 11.62, 11.62, 11.62, 11.88, 11.5, 11.5, 11.5, 11.5, 11.75, 11.36, 11.36, 11.6, 11.6, 11.6, 11.41, 11.41, 11.41, 11.12, 11.12, 11.12, 10.91, 10.91, 10.42, 10.0, 9.21, 9.33, 9.43, 9.7, 9.7, 9.21, 9.21, 9.39, 9.39, 9.11, 9.11, 9.11, 9.23, 9.23, 8.86, 8.47, 8.05, 7.58, 7.06, 5.57, 5.81, 4.8, 4.46, 3.48, 1.7, -0.0, -0.0, -0.0, 1.72, 4.47, 8.37, 12.87, 16.09, 16.69, 13.96, 10.7, 7.06, 4.93, 5.2, 8.05, 9.36, 10.18, 11.09, 11.99, 12.43, 12.05, 11.15, 9.83, 8.49, 8.01, 9.81, 10.16, 10.16, 10.18, 8.91, 10.72, 10.72, 10.72, 10.72, 10.72, 11.28, 10.94, 10.94, 10.94, 11.23, 11.23, 11.23, 11.23, 11.72, 11.72, 11.72, 11.72, 11.99, 11.99, 11.62, 11.62, 11.88, 11.88, 11.88, 11.88, 11.88, 11.5, 11.75, 11.36, 11.36, 11.6, 11.6, 11.6, 11.2, 11.31, 11.31, 10.91, 11.12, 11.12, 11.12, 10.71, 10.83, 10.42, 9.92, 9.92, 9.75, 9.21, 8.79, 8.72, 8.91, 8.91, 8.91, 8.96, 9.11, 9.11, 9.23, 9.23, 8.86, 8.47, 8.05, 7.6, 6.61, 6.61, 5.7, 4.8, 4.4, 2.68, 1.3, -0.0, -0.0, -0.0, 1.6, 3.76, 5.93, 8.15, 12.46, 17.36, 19.65, 15.9, 9.08, 3.97, 4.87, 7.94, 11.09, 11.99, 12.05, 12.07, 11.62, 11.62, 11.62, 10.73, 9.36, 8.82, 10.16, 10.49, 10.02, 10.02, 10.02, 10.72, 10.72, 10.72, 10.72, 10.99, 11.28, 10.94, 10.94, 10.94, 11.23, 11.23, 11.23, 11.23, 11.44, 11.72, 11.72, 11.72, 11.72, 11.99, 11.62, 11.62, 11.88, 11.88, 11.88, 11.88, 11.88, 11.75, 11.75, 11.36, 11.36, 11.36, 11.6, 11.6, 11.08, 11.31, 11.31, 10.91, 10.91, 11.12, 11.12, 10.71, 10.71, 10.21, 10.21, 10.21, 10.42, 9.7, 9.39, 8.91, 8.48, 8.48, 8.48, 8.48, 8.48, 9.07, 9.11, 8.79, 8.86, 8.47, 8.05, 7.15, 7.13, 6.23, 6.14, 5.2, 4.77, 4.09, 1.3, -0.0, -0.0, 0.82, 1.7, 3.49, 4.01, 5.93, 9.2, 13.99, 19.59, 20.67, 18.33, 15.25, 14.82, 15.59, 16.47, 15.53, 14.11, 11.6, 9.83, 8.91, 8.82, 8.82, 8.82, 8.19, 8.63, 9.54, 8.91, 8.91, 8.91, 10.72, 10.72, 10.72, 10.72, 11.28, 11.28, 10.94, 10.94, 10.94, 11.23, 11.23, 11.23, 11.23, 11.44, 11.72, 11.72, 11.72, 11.72, 11.99, 11.99, 11.88, 11.88, 11.88, 11.88, 11.88, 11.88, 11.75, 11.75, 11.75, 11.75, 11.36, 11.6, 11.6, 11.08, 11.08, 11.31, 10.91, 10.91, 10.91, 11.12, 11.12, 10.71, 10.62, 10.62, 10.21, 10.42, 10.18, 9.86, 9.39, 8.96, 8.48, 8.48, 8.48, 8.64, 8.64, 8.64, 8.77, 8.42, 8.03, 7.6, 7.15, 6.71, 6.26, 6.71, 5.36, 4.77, 4.09, 1.3, -0.0, -0.0, 0.81, 1.55, 2.76, 4.43, 5.82, 7.89, 11.87, 15.9, 19.19, 18.72, 17.99, 19.22, 20.05, 19.59, 17.33, 15.34, 13.09, 10.7, 8.01, 6.79, 5.86, 6.36, 6.79, 8.4, 8.82, 7.89, 7.89, 7.89, 10.72, 10.72, 10.72, 11.28, 11.28, 11.28, 10.94, 10.94, 11.23, 11.23, 11.23, 11.23, 11.44, 11.44, 11.72, 11.72, 11.72, 11.72, 11.72, 11.99, 11.62, 11.88, 12.03, 12.03, 12.03, 11.88, 11.75, 11.75, 11.75, 11.75, 11.75, 11.36, 11.6, 11.08, 11.08, 11.08, 10.91, 10.91, 10.91, 10.91, 11.12, 10.71, 10.71, 10.62, 10.21, 10.42, 10.0, 10.18, 9.86, 9.39, 8.96, 8.91, 8.64, 8.64, 8.64, 8.33, 8.33, 7.97, 7.97, 7.58, 7.15, 6.71, 6.71, 5.81, 5.81, 4.77, 4.09, 2.53, -0.0, -0.0, -0.0, 1.55, 2.76, 4.43, 5.82, 6.94, 9.49, 13.23, 15.03, 15.12, 16.35, 18.85, 21.4, 20.68, 18.0, 16.24, 15.76, 14.9, 12.05, 7.12, 7.21, 4.4, 6.4, 7.89, 7.47, 6.94, 6.94, 6.94, 10.4, 10.4, 10.72, 11.28, 11.28, 10.94, 10.94, 10.94, 11.23, 11.23, 11.23, 11.23, 11.44, 11.44, 11.72, 11.72, 11.72, 11.72, 11.72, 11.99, 11.62, 12.42, 12.42, 12.42, 12.03, 11.88, 11.75, 11.75, 11.75, 11.75, 11.75, 11.36, 11.6, 11.47, 11.08, 11.08, 11.08, 10.91, 10.91, 10.91, 10.91, 10.4, 10.62, 10.62, 10.21, 10.42, 10.0, 10.12, 9.7, 9.7, 9.39, 8.96, 8.96, 8.64, 8.64, 8.33, 8.3, 7.97, 7.51, 7.13, 6.68, 6.71, 6.71, 6.26, 5.36, 5.81, 4.66, 2.41, 0.81, -0.0, -0.0, 1.55, 2.76, 4.11, 5.46, 6.44, 8.4, 11.09, 11.88, 11.87, 13.35, 18.33, 21.65, 20.68, 18.54, 17.16, 17.17, 16.76, 14.23, 10.28, 5.75, 3.84, 4.81, 6.07, 6.44, 5.46, 5.46, 5.46, 10.4, 10.4, 10.69, 10.69, 10.94, 10.94, 10.94, 10.94, 11.23, 11.23, 11.23, 11.44, 11.44, 11.44, 11.72, 11.72, 11.72, 11.72, 11.72, 11.99, 11.62, 12.16, 12.42, 12.42, 12.03, 12.03, 12.14, 11.75, 11.75, 11.75, 11.75, 11.36, 11.6, 11.47, 11.08, 11.08, 11.08, 10.91, 10.91, 10.91, 10.8, 10.4, 10.62, 10.62, 10.21, 10.21, 10.42, 9.92, 10.12, 9.7, 9.27, 9.39, 8.96, 8.96, 8.64, 8.21, 8.3, 7.87, 7.51, 7.07, 7.13, 6.68, 6.71, 6.26, 5.81, 5.81, 4.24, 2.48, 1.3, 0.88, -0.0, 0.81, 2.76, 4.43, 5.15, 6.18, 7.44, 9.65, 10.29, 9.23, 10.86, 16.37, 21.06, 20.63, 19.93, 18.78, 17.07, 15.13, 12.49, 3.51, 2.5, 2.84, 2.79, 4.11, 4.43, 4.11, 4.11, 4.11, 10.69, 10.69, 10.69, 10.69, 10.94, 10.94, 10.94, 11.23, 11.23, 11.23, 11.23, 11.44, 11.44, 11.44, 11.72, 11.72, 11.72, 11.72, 11.72, 11.62, 11.62, 12.16, 12.16, 12.42, 12.42, 12.03, 12.28, 12.28, 12.28, 11.75, 11.75, 11.75, 11.36, 11.47, 11.08, 11.08, 11.08, 10.68, 10.91, 10.91, 10.8, 10.4, 10.4, 10.21, 10.21, 10.21, 10.11, 9.92, 9.92, 9.7, 9.7, 9.39, 9.39, 8.96, 9.07, 8.64, 8.33, 8.3, 7.97, 7.51, 7.13, 7.13, 6.71, 6.71, 5.81, 6.26, 4.77, 2.48, 1.3, 0.81, 0.88, 0.88, 2.76, 4.11, 4.29, 5.06, 6.06, 7.68, 8.6, 8.22, 9.27, 13.15, 17.07, 19.49, 21.02, 19.87, 16.6, 12.44, 6.26, 3.13, 1.9, 1.33, 1.8, 2.3, 2.79, 2.79, 2.79, 2.79, 10.69, 10.69, 10.69, 10.69, 10.69, 10.94, 10.94, 11.23, 11.23, 11.23, 11.23, 11.44, 11.44, 11.44, 11.72, 11.72, 11.72, 11.72, 11.72, 11.62, 11.62, 11.99, 12.16, 12.42, 12.42, 12.03, 12.28, 12.28, 12.28, 11.75, 11.75, 11.75, 11.36, 11.6, 11.08, 11.08, 11.08, 10.68, 10.68, 10.8, 10.8, 10.4, 10.4, 10.21, 10.11, 10.11, 9.71, 9.92, 9.92, 9.51, 9.7, 9.21, 9.39, 9.39, 8.91, 8.64, 8.64, 8.3, 7.87, 7.97, 7.51, 7.13, 7.15, 6.71, 6.26, 5.81, 5.09, 3.48, 1.83, 0.81, 0.7, -0.0, 1.8, 3.35, 3.47, 4.16, 4.95, 5.59, 6.42, 7.52, 8.6, 9.23, 11.7, 16.68, 21.28, 21.05, 11.99, 7.6, 4.02, 3.53, 2.24, 0.54, 0.61, 1.16, 1.16, 1.16, 1.16, 1.16, 10.69, 10.69, 10.69, 10.69, 10.69, 10.94, 10.94, 11.23, 11.23, 11.23, 11.23, 11.44, 11.8, 11.44, 11.72, 11.72, 11.72, 11.72, 11.35, 11.62, 11.62, 11.99, 11.99, 12.16, 12.42, 12.03, 12.03, 12.28, 12.28, 12.28, 11.75, 11.75, 11.36, 11.6, 11.47, 11.08, 11.08, 10.68, 10.68, 10.8, 10.4, 10.4, 10.4, 10.0, 10.11, 10.11, 9.71, 9.71, 9.92, 9.92, 9.51, 9.63, 9.21, 8.96, 8.91, 8.48, 8.64, 8.21, 8.3, 7.87, 7.51, 7.51, 7.13, 7.15, 6.26, 5.81, 5.09, 3.79, 1.55, 0.73, 1.49, 1.49, 0.6, 1.6, 2.76, 3.47, 4.16, 4.03, 5.21, 7.27, 7.9, 7.9, 8.53, 13.51, 21.28, 18.56, 13.78, 7.6, 3.13, 3.53, 4.73, 2.68, 0.0, 0.0, 0.0, 0.0, 0.0, 0.0, 10.69, 10.69, 10.69, 10.69, 10.69, 10.69, 11.23, 11.23, 11.23, 11.23, 11.23, 11.44, 11.44, 11.44, 11.72, 11.72, 11.72, 11.72, 11.35, 11.62, 11.62, 11.99, 11.99, 11.99, 11.88, 12.03, 12.03, 12.28, 12.28, 12.28, 11.75, 11.75, 11.75, 11.6, 11.47, 11.08, 11.08, 10.68, 10.68, 10.8, 10.4, 10.4, 10.4, 9.88, 10.11, 9.71, 9.71, 9.71, 9.92, 9.92, 9.51, 9.51, 9.21, 9.21, 8.91, 8.48, 8.48, 8.17, 8.17, 7.87, 7.87, 7.51, 7.13, 7.13, 6.71, 5.36, 5.29, 3.16, 0.81, 0.88, 1.66, 2.3, 1.74, 0.71, 0.88, 2.6, 3.33, 3.55, 4.95, 5.59, 6.95, 7.27, 7.97, 12.7, 23.95, 20.9, 16.03, 10.73, 3.53, 2.63, 6.67, 8.91, 2.91, 0.0, -0.6, -0.63, -0.63, -0.63, 10.36, 10.36, 10.36, 10.69, 10.69, 10.69, 11.23, 11.23, 11.23, 11.23, 11.23, 11.44, 11.44, 11.44, 11.72, 11.72, 11.72, 11.35, 11.35, 11.62, 11.62, 11.99, 11.62, 11.62, 11.62, 11.88, 12.03, 12.03, 12.28, 12.28, 11.75, 11.75, 11.75, 11.36, 11.47, 11.08, 11.08, 10.68, 10.55, 10.55, 10.4, 10.4, 10.0, 9.88, 9.88, 9.71, 9.71, 9.71, 9.71, 9.92, 9.51, 9.51, 9.42, 9.21, 8.72, 8.91, 8.48, 8.0, 8.17, 7.74, 7.84, 7.4, 7.51, 7.13, 6.71, 5.81, 4.92, 2.53, -0.0, -0.0, 1.66, 2.4, 3.22, 2.4, 0.79, 1.7, 2.47, 3.33, 4.29, 5.06, 5.3, 6.53, 8.68, 20.77, 24.49, 22.24, 17.82, 13.41, 7.57, 3.07, 4.52, 10.19, 7.45, 1.26, -0.8, -0.89, -0.89, -0.89, 10.36, 10.36, 10.36, 10.36, 10.36, 10.99, 11.23, 11.23, 11.23, 11.23, 11.23, 11.23, 11.44, 11.44, 11.72, 11.72, 11.72, 11.16, 11.35, 11.62, 11.62, 11.99, 11.62, 11.62, 11.62, 11.88, 11.88, 12.03, 12.28, 12.28, 11.75, 11.75, 11.75, 11.36, 11.47, 11.08, 11.08, 10.68, 10.55, 10.55, 10.4, 10.4, 9.88, 9.88, 9.88, 9.71, 9.71, 9.71, 9.6, 9.3, 9.51, 9.51, 9.01, 9.21, 8.72, 8.91, 8.48, 8.42, 8.17, 7.74, 7.69, 7.4, 7.51, 7.07, 6.68, 5.79, 3.58, 1.49, -0.0, -0.0, 0.87, 1.8, 3.48, 3.07, 2.3, 1.55, 1.7, 3.47, 4.01, 4.01, 3.9, 5.59, 12.94, 20.23, 23.11, 20.7, 16.48, 11.62, 7.01, 3.16, 4.43, 8.93, 6.07, 1.34, -0.0, -0.0, -0.0, -0.0, 10.36, 10.36, 10.36, 10.36, 10.36, 10.65, 10.99, 11.23, 11.23, 11.23, 11.23, 11.23, 11.23, 11.44, 11.72, 11.52, 11.16, 11.16, 11.35, 11.62, 11.62, 11.62, 11.62, 11.62, 11.62, 11.88, 11.88, 11.88, 11.88, 12.28, 11.75, 11.75, 11.75, 11.36, 11.47, 11.08, 11.08, 10.68, 10.55, 10.55, 10.4, 10.4, 9.88, 9.88, 9.88, 9.71, 9.71, 9.6, 9.2, 9.2, 9.42, 9.42, 9.42, 9.21, 8.79, 8.72, 8.48, 8.42, 8.0, 7.74, 7.69, 7.4, 7.4, 7.06, 7.13, 6.23, 4.89, 2.68, 1.0, 1.0, 0.85, 1.74, 2.84, 2.68, 2.68, 1.8, 1.83, 2.76, 3.22, 3.22, 3.22, 4.29, 10.28, 17.38, 20.94, 18.17, 14.11, 8.05, 2.8, 0.59, 2.66, 3.49, 1.79, -0.0, -0.0, 1.2, 1.2, 1.2, 10.09, 10.09, 10.36, 10.36, 10.65, 10.65, 10.65, 11.23, 11.23, 11.23, 11.23, 11.23, 11.23, 11.52, 11.52, 11.16, 11.16, 11.16, 11.16, 11.62, 11.62, 11.62, 11.62, 11.62, 11.62, 11.88, 11.88, 11.88, 11.88, 12.14, 11.75, 11.75, 11.75, 11.36, 11.47, 11.08, 11.08, 10.68, 10.55, 10.55, 10.4, 10.4, 9.88, 9.88, 9.88, 9.71, 9.6, 9.6, 9.2, 9.2, 9.2, 9.42, 9.42, 9.01, 9.21, 8.72, 8.3, 8.42, 8.0, 7.74, 7.69, 7.26, 7.4, 6.94, 7.06, 6.61, 5.34, 4.02, 2.17, 1.0, 1.0, 2.6, 2.98, 2.84, 2.41, 2.53, 2.21, 1.8, 2.68, 2.53, 2.95, 4.84, 8.3, 13.78, 19.08, 18.82, 15.39, 9.74, 1.2, -1.84, -1.2, -0.45, -0.0, 1.24, 1.4, 1.33, 1.33, 1.33, 10.09, 10.09, 10.09, 10.36, 10.65, 10.65, 10.65, 11.23, 11.23, 11.23, 11.23, 11.23, 11.23, 11.52, 11.16, 11.16, 11.16, 11.16, 11.16, 11.62, 11.62, 11.62, 11.62, 11.62, 11.88, 11.88, 11.88, 11.5, 11.5, 11.75, 11.75, 11.75, 11.75, 11.36, 11.47, 11.08, 11.08, 10.68, 10.55, 10.55, 10.4, 10.4, 9.88, 9.88, 9.48, 9.48, 9.6, 9.6, 9.2, 9.2, 9.2, 9.42, 9.42, 9.01, 9.21, 8.72, 8.72, 8.42, 8.0, 8.0, 7.69, 7.26, 7.4, 6.94, 7.06, 6.61, 6.16, 4.88, 3.13, 2.0, 2.0, 2.6, 2.53, 2.84, 2.84, 2.84, 2.21, 1.74, 2.53, 2.84, 3.6, 4.85, 7.15, 11.18, 17.86, 20.1, 17.38, 13.79, 4.02, -1.24, -2.24, -0.57, 1.2, 2.84, 2.79, 3.72, 3.72, 3.72, 9.77, 9.77, 9.77, 10.39, 10.65, 10.65, 10.65, 10.65, 10.88, 11.23, 11.23, 11.23, 11.16, 11.16, 11.16, 11.16, 11.16, 11.16, 11.44, 11.44, 11.62, 11.62, 11.44, 11.07, 11.5, 11.5, 11.5, 11.5, 11.5, 11.5, 11.75, 11.75, 11.75, 11.36, 11.47, 11.08, 11.08, 10.68, 10.55, 10.55, 10.4, 10.4, 9.88, 9.88, 9.88, 9.48, 9.6, 9.6, 9.2, 9.2, 9.2, 9.42, 9.42, 9.01, 9.01, 8.72, 8.72, 8.22, 8.0, 8.0, 7.51, 7.69, 7.26, 7.37, 6.94, 7.06, 6.6, 5.24, 3.98, 2.68, 2.0, 2.6, 2.53, 2.53, 2.84, 2.84, 2.53, 2.21, 1.74, 2.98, 3.9, 4.92, 7.11, 10.6, 16.47, 20.99, 19.67, 16.54, 13.39, 6.71, 2.17, 1.9, 3.72, 6.07, 5.43, 5.37, 5.37, 5.37, 9.77, 9.77, 9.77, 10.06, 10.65, 10.65, 10.65, 10.65, 10.65, 10.88, 10.88, 10.88, 11.16, 11.16, 11.16, 11.16, 11.16, 11.16, 11.44, 11.44, 11.44, 11.44, 11.07, 11.07, 11.34, 11.34, 11.5, 11.5, 11.5, 11.5, 11.75, 11.75, 11.36, 11.36, 11.47, 11.08, 11.08, 10.68, 10.55, 10.16, 10.4, 10.27, 9.88, 9.88, 9.88, 9.48, 9.6, 9.6, 9.2, 9.2, 9.2, 9.2, 9.42, 9.01, 8.91, 8.51, 8.72, 8.3, 8.22, 8.0, 7.51, 7.51, 7.26, 7.21, 6.94, 6.94, 6.51, 5.99, 4.34, 3.13, 2.17, 2.54, 2.6, 2.6, 2.6, 2.6, 2.98, 2.6, 2.97, 3.47, 4.38, 6.26, 7.89, 10.93, 15.91, 20.95, 21.89, 18.78, 16.93, 15.05, 12.66, 9.89, 8.48, 7.6, 7.28, 7.07, 7.07, 7.07, 9.77, 9.77, 10.06, 10.06, 10.06, 10.65, 10.65, 10.65, 10.65, 10.65, 10.88, 11.16, 11.16, 11.16, 11.16, 11.16, 11.16, 11.44, 11.44, 11.44, 11.44, 11.07, 11.07, 11.07, 11.34, 11.34, 11.34, 11.34, 11.34, 11.34, 11.75, 11.36, 11.36, 11.6, 11.08, 11.08, 11.08, 10.68, 10.55, 10.16, 10.4, 10.27, 9.88, 9.88, 9.88, 9.48, 9.35, 9.6, 9.2, 9.2, 9.2, 9.2, 9.42, 9.01, 8.91, 8.51, 8.72, 8.3, 8.22, 8.0, 8.0, 7.51, 7.26, 7.21, 7.21, 6.94, 6.94, 6.04, 5.24, 3.53, 2.68, 2.68, 1.34, 3.58, 2.54, 3.13, 3.13, 2.97, 3.13, 3.58, 4.92, 7.15, 8.8, 10.93, 14.57, 19.65, 21.9, 20.5, 18.56, 17.97, 16.91, 14.31, 11.58, 9.68, 8.67, 7.28, 7.28, 7.28, 10.06, 10.06, 10.06, 10.06, 10.06, 10.06, 10.3, 10.65, 10.65, 10.65, 10.94, 11.16, 11.16, 11.16, 10.8, 10.8, 10.8, 11.07, 11.07, 11.07, 11.07, 11.07, 11.07, 11.07, 11.34, 11.34, 11.34, 11.34, 10.96, 10.96, 11.22, 11.22, 11.22, 11.47, 11.08, 11.08, 11.08, 10.55, 10.55, 10.16, 10.4, 10.27, 9.88, 9.88, 9.88, 9.48, 9.35, 9.6, 9.2, 9.2, 9.2, 9.2, 8.8, 9.01, 8.91, 8.51, 8.51, 8.3, 8.22, 7.81, 8.0, 7.51, 7.51, 7.26, 7.21, 7.26, 6.79, 6.47, 5.09, 3.98, 3.13, 3.13, 3.13, 4.02, 3.13, 3.58, 3.58, 3.13, 3.58, 4.02, 5.36, 7.15, 8.9, 11.06, 13.39, 17.43, 20.43, 20.63, 20.0, 19.52, 17.96, 15.84, 13.21, 11.09, 8.67, 6.8, 6.8, 6.8, 10.06, 10.06, 10.06, 10.06, 10.06, 10.06, 10.3, 10.65, 10.65, 10.65, 10.94, 11.16, 11.16, 11.16, 10.8, 10.8, 10.8, 11.07, 11.07, 11.07, 11.07, 11.07, 11.07, 11.07, 11.34, 11.34, 11.34, 11.34, 10.96, 10.96, 11.22, 11.22, 11.22, 11.47, 11.08, 11.08, 11.08, 10.55, 10.55, 10.16, 10.4, 10.27, 9.88, 9.88, 9.88, 9.48, 9.35, 9.6, 9.2, 9.2, 9.2, 9.2, 8.8, 9.01, 8.91, 8.51, 8.51, 8.3, 8.22, 7.81, 8.0, 7.51, 7.51, 7.26, 7.21, 7.26, 6.79, 6.47, 5.09, 3.98, 3.13, 3.13, 3.13, 4.02, 3.13, 3.58, 3.13, 3.13, 3.58, 4.02, 5.36, 7.15, 8.94, 10.73, 12.52, 15.18, 18.17, 20.16, 20.23, 20.01, 19.08, 18.16, 16.03, 13.07, 9.33, 5.86, 5.86, 5.86]}, {"header": {"dx": 0.06612293990616946, "dy": 0.0552356325346848, "nx": 98, "ny": 59, "la1": 35.046912555036876, "la2": 31.78801023549047, "lo1": -121.43107172385933, "lo2": -114.95102361305473, "refTime": "2026041705", "parameterCategory": 1, "parameterNumber": 3}, "data": [-14.03, -13.75, -12.65, -11.72, -11.07, -9.86, -8.84, -8.0, -7.35, -6.95, -6.0, -4.6, -2.24, -1.34, -0.63, -0.6, -0.6, -0.6, -0.8, -1.58, -1.49, -1.24, -1.24, -1.24, -2.21, -3.22, -3.2, -3.04, -3.07, -2.68, -2.68, -2.6, -1.86, -1.24, -0.54, -0.65, -0.61, -0.61, 0.0, -1.7, -3.13, -4.02, -4.98, -6.7, -7.9, -9.31, -11.19, -9.31, -2.2, 2.15, 5.46, 5.43, 4.65, 5.3, 5.59, 5.21, 5.13, 4.83, 4.0, 3.8, 3.27, 3.2, 3.79, 3.2, 3.2, 3.27, 3.06, 3.11, 2.95, 2.37, 2.22, 1.48, 0.79, 0.74, 0.74, 0.76, 0.75, 0.0, -0.78, -0.78, 0.0, 0.0, -1.2, -1.7, -3.2, -3.49, -2.53, -2.53, -2.47, -3.88, -5.2, -6.1, -6.9, -7.13, -7.13, -6.9, -6.43, -5.4, -13.85, -13.48, -12.82, -11.72, -11.07, -10.41, -9.76, -8.93, -8.27, -7.61, -6.28, -3.74, -2.17, -1.2, -1.79, -0.0, -0.6, -0.8, -1.26, -2.23, -2.84, -2.53, -1.74, -1.49, -1.9, -2.21, -2.5, -3.2, -3.2, -3.04, -2.68, -2.24, -1.7, -0.6, -0.57, -0.65, -0.7, -0.66, -0.61, -1.24, -3.07, -6.17, -8.79, -10.28, -11.49, -12.01, -8.76, -1.33, 2.86, 5.46, 5.43, 5.37, 5.69, 5.35, 5.64, 5.49, 5.38, 5.28, 4.71, 3.88, 3.8, 3.91, 3.91, 3.91, 3.91, 3.15, 3.21, 3.11, 2.34, 2.22, 2.31, 1.54, 0.79, 0.0, 0.0, 0.0, 0.0, 0.0, -0.78, -0.78, 0.0, 0.0, -1.2, -1.7, -3.2, -3.49, -2.53, -2.53, -2.47, -3.88, -5.2, -6.1, -6.9, -7.13, -7.13, -6.9, -6.43, -5.4, -13.48, -13.48, -12.93, -12.27, -11.35, -10.51, -10.41, -9.21, -8.55, -7.9, -6.56, -5.81, -2.91, -1.86, -0.95, 0.0, -0.45, -1.2, -2.17, -2.54, -2.86, -3.79, -4.19, -3.79, -2.53, -1.9, -1.58, -2.23, -2.6, -3.32, -3.32, -2.6, -2.12, -1.34, -0.95, -1.49, -1.33, -1.55, -1.94, -2.07, -4.09, -9.18, -11.34, -12.51, -11.2, -7.59, -0.76, 2.5, 4.46, 4.81, 4.74, 5.06, 5.37, 5.3, 5.69, 5.21, 5.38, 5.28, 4.71, 4.5, 4.6, 4.46, 4.71, 4.6, 3.8, 3.7, 3.11, 3.16, 2.44, 1.5, 1.51, 0.78, 0.0, 0.0, 0.0, 0.0, 0.0, 0.0, -0.68, -0.77, 0.0, -0.71, -1.26, -2.68, -3.51, -4.09, -3.72, -3.11, -3.91, -5.51, -7.13, -7.93, -8.46, -8.84, -8.05, -7.54, -6.33, -5.3, -13.48, -13.48, -12.93, -12.37, -11.72, -10.8, -10.51, -9.86, -8.84, -8.27, -7.23, -6.28, -3.32, -2.4, -1.26, -0.95, -0.63, -1.34, -2.24, -2.6, -2.6, -2.6, -4.11, -5.0, -4.65, -2.68, -1.2, -1.24, -1.86, -3.2, -4.8, -4.93, -4.4, -2.23, -2.24, -2.6, -2.53, -3.22, -4.56, -5.3, -7.02, -9.3, -9.27, -7.06, -3.64, 0.0, 2.15, 3.07, 3.79, 4.11, 4.43, 4.74, 4.65, 5.37, 5.37, 5.59, 4.6, 4.5, 4.5, 4.83, 4.37, 4.71, 4.6, 4.6, 3.88, 3.11, 3.02, 2.88, 2.82, 2.18, 2.25, 0.78, 0.0, 0.0, -0.73, -1.52, -1.56, -0.78, -0.77, -0.76, -1.23, -1.33, -2.23, -3.13, -3.58, -3.51, -4.19, -5.3, -6.79, -8.05, -8.61, -8.72, -8.56, -8.66, -8.01, -6.79, -5.28, -4.5, -13.48, -13.3, -12.93, -12.73, -12.0, -11.52, -10.59, -9.59, -9.21, -8.0, -7.61, -6.8, -3.74, -2.4, -1.86, -1.86, -1.49, -1.7, -2.24, -3.13, -3.04, -2.21, -2.53, -3.22, -3.79, -4.47, -2.95, -1.9, -2.12, -2.6, -3.95, -6.28, -7.6, -7.89, -6.71, -6.79, -6.4, -7.28, -8.68, -8.32, -6.68, -4.74, -1.49, 0.0, 0.7, 1.47, 2.11, 2.2, 3.07, 3.79, 3.79, 3.72, 4.11, 4.74, 4.65, 4.46, 3.91, 3.8, 4.5, 4.0, 4.12, 4.71, 4.71, 4.0, 3.78, 2.31, 2.31, 2.31, 3.16, 2.99, 3.14, 2.25, 2.06, 0.0, -0.79, -2.06, -2.44, -1.56, -0.74, -1.32, -2.11, -2.2, -3.48, -4.02, -5.09, -5.36, -6.64, -7.97, -9.4, -10.25, -9.49, -8.56, -8.37, -8.53, -6.95, -5.3, -4.46, -4.37, -13.48, -13.3, -12.93, -12.73, -12.37, -11.8, -11.16, -9.94, -9.3, -8.37, -7.35, -6.56, -3.22, -1.86, -1.86, -2.4, -2.4, -2.4, -3.07, -4.92, -6.51, -6.7, -6.32, -4.22, -3.22, -4.47, -5.06, -4.6, -4.34, -3.13, -2.68, -3.58, -6.07, -8.63, -9.39, -8.91, -8.36, -7.69, -8.03, -6.7, -5.05, -2.21, -0.61, 0.0, 0.0, 0.78, 2.11, 2.73, 3.79, 2.79, 2.41, 2.79, 3.07, 3.72, 3.64, 3.79, 3.09, 3.91, 4.0, 3.88, 3.91, 3.69, 3.8, 3.21, 2.21, 2.31, 1.54, 2.35, 3.06, 3.16, 3.04, 3.91, 3.78, 2.37, 0.79, -0.73, -2.26, -2.18, -1.54, -0.74, -3.11, -4.65, -5.43, -5.36, -7.11, -9.36, -10.55, -11.25, -11.76, -11.06, -10.12, -9.4, -9.1, -7.97, -4.81, -3.48, -4.56, -4.6, -13.01, -13.01, -12.65, -12.45, -12.09, -11.8, -11.23, -10.23, -9.37, -8.65, -7.35, -6.56, -3.83, -1.9, -2.84, -1.86, -2.8, -3.83, -5.34, -5.86, -5.77, -6.28, -7.9, -9.17, -8.15, -7.28, -8.34, -8.79, -7.74, -6.02, -2.68, -2.12, -2.17, -3.58, -7.6, -8.49, -8.91, -8.22, -6.32, -4.84, -4.0, -4.0, -4.98, -4.19, -1.99, 0.7, 3.79, 3.72, 4.11, 3.76, 3.49, 2.41, 3.07, 2.98, 2.88, 3.0, 3.0, 2.26, 2.99, 3.15, 2.99, 2.31, 2.23, 1.47, 1.54, 2.28, 2.23, 2.26, 2.4, 2.31, 2.22, 2.39, 2.91, 2.35, 1.51, 0.74, -0.74, -2.35, -3.09, -3.68, -3.95, -7.9, -8.68, -8.63, -10.25, -12.18, -13.35, -13.51, -12.84, -11.82, -11.45, -12.08, -10.18, -5.09, -2.91, -3.45, -5.59, -5.38, -13.01, -13.01, -12.45, -12.45, -12.09, -11.52, -11.23, -10.3, -9.66, -8.73, -8.0, -7.48, -3.84, -2.5, -3.79, -1.9, -3.07, -4.46, -4.66, -4.84, -3.07, -1.33, -2.17, -6.08, -9.92, -10.16, -10.21, -9.8, -8.4, -6.8, -5.7, -3.58, -3.04, -4.82, -6.55, -8.05, -8.49, -7.89, -6.4, -5.75, -3.6, -2.8, -2.8, -2.23, 0.0, 2.12, 2.86, 3.72, 3.72, 3.22, 1.88, 2.15, 3.07, 3.22, 2.29, 2.2, 2.35, 1.52, 1.49, 1.49, 1.58, 0.76, 0.76, 1.58, 2.31, 2.99, 2.44, 1.49, 0.81, 0.0, 0.0, 0.0, 0.0, 0.0, 0.78, 0.68, 0.0, -0.78, -3.21, -5.48, -5.81, -8.31, -9.84, -10.13, -11.09, -13.21, -13.86, -14.11, -13.51, -12.52, -12.68, -12.32, -7.69, -2.24, -2.68, -4.46, -7.02, -6.24, -13.01, -13.01, -12.45, -12.45, -11.87, -11.52, -11.23, -10.65, -10.01, -9.37, -8.65, -8.43, -7.4, -6.4, -5.43, -4.8, -5.05, -5.43, -4.4, -2.86, -1.98, 0.0, 0.0, 0.0, -3.58, -6.7, -7.76, -8.0, -7.47, -7.37, -8.87, -10.28, -10.23, -9.33, -7.15, -5.81, -6.26, -6.61, -5.51, -3.04, -1.79, -0.89, -0.45, 0.0, 0.89, 1.34, 1.26, 1.49, 2.07, 3.07, 4.19, 2.79, 2.73, 2.4, 2.29, 1.6, 0.78, 0.74, 0.79, 0.0, 0.0, 0.0, 0.72, 1.47, 2.47, 3.06, 2.31, 0.78, 0.0, -1.5, -1.58, -1.41, -0.78, -0.71, -0.7, -1.52, -1.58, -1.54, -3.04, -4.24, -4.66, -7.16, -8.87, -10.09, -11.06, -12.13, -13.33, -13.51, -12.68, -11.44, -10.45, -7.85, -2.68, -1.9, -3.13, -6.44, -7.68, -6.68, -13.01, -12.45, -12.45, -12.45, -11.87, -11.52, -10.94, -10.65, -10.3, -10.01, -9.59, -9.5, -8.93, -9.2, -8.3, -7.89, -8.3, -8.82, -8.67, -8.24, -8.24, -7.4, -4.19, -1.98, -2.21, -3.13, -4.29, -6.32, -8.94, -9.33, -10.28, -8.49, -5.81, -4.82, -6.36, -3.58, -2.6, -2.12, -1.79, -1.34, -0.0, 0.0, 0.0, 0.0, 0.0, 0.0, 0.0, 0.6, 1.24, 2.84, 3.07, 3.79, 2.98, 2.2, 1.55, 0.7, 0.0, 0.0, -0.78, -0.78, 0.0, 0.73, 2.6, 2.53, 3.0, 2.31, 2.28, 1.36, -0.73, -2.35, -3.25, -2.88, -2.14, -2.1, -2.82, -3.46, -4.58, -4.65, -4.31, -3.59, -3.58, -3.59, -6.62, -8.49, -9.6, -10.09, -10.99, -11.05, -10.47, -9.21, -6.0, -2.17, -1.86, -3.32, -6.07, -8.3, -8.68, -6.08, -12.45, -12.45, -12.45, -12.16, -11.58, -11.87, -11.28, -10.94, -10.65, -10.3, -10.01, -10.01, -9.59, -8.84, -7.42, -7.35, -7.76, -8.72, -9.21, -10.6, -11.4, -11.51, -10.14, -7.21, -6.0, -2.68, -2.54, -2.21, -5.37, -8.24, -5.29, -1.86, -0.0, -1.2, -3.14, -4.15, -2.68, 0.0, 0.0, 0.0, 0.45, 0.45, 0.0, 0.0, 0.0, 0.0, 0.0, 1.2, 2.12, 2.8, 3.45, 3.84, 3.07, 2.3, 1.49, 0.79, 0.73, 0.0, -0.79, 0.0, 1.24, 2.84, 4.46, 4.43, 4.95, 5.21, 5.49, 4.46, 1.6, -0.72, -1.55, -2.06, -2.17, -2.83, -3.44, -4.87, -5.54, -6.09, -6.33, -5.29, -4.24, -2.81, -2.12, -6.64, -8.14, -8.49, -8.58, -8.86, -8.59, -6.98, -3.48, -2.12, -2.6, -5.36, -8.63, -10.23, -8.3, -3.74, -12.45, -12.45, -12.45, -12.16, -11.92, -11.58, -10.99, -10.94, -10.69, -10.65, -10.3, -9.72, -9.42, -8.45, -6.92, -5.65, -4.43, -5.35, -6.23, -8.0, -8.0, -7.23, -6.6, -7.31, -4.77, -3.82, -1.79, 0.0, -0.0, -1.6, -1.6, -0.0, 1.2, 0.53, -0.0, -1.88, -0.99, -0.0, 0.0, 0.45, 1.2, 1.2, 0.6, 0.0, 0.0, 0.0, 1.34, 2.24, 2.68, 2.68, 2.6, 2.4, 2.86, 2.84, 2.84, 2.84, 3.07, 1.4, 0.0, 0.89, 4.92, 7.21, 7.03, 6.94, 8.0, 10.15, 10.87, 9.67, 7.06, 4.65, 2.72, 1.36, 0.0, -1.47, -3.79, -4.83, -5.52, -6.05, -6.36, -5.54, -4.5, -1.6, 0.0, -3.95, -6.85, -7.85, -8.55, -8.55, -7.95, -6.35, -5.69, -3.32, -3.13, -5.81, -8.91, -10.15, -6.28, -3.13, -12.45, -12.45, -12.16, -11.92, -11.92, -11.58, -11.33, -10.99, -10.69, -10.36, -9.77, -9.72, -9.42, -8.5, -7.59, -5.72, -4.21, -4.1, -4.47, -5.09, -5.72, -4.6, -4.42, -3.2, -1.7, -1.11, -0.61, 0.0, 1.6, 0.53, -0.61, -0.0, 0.65, 0.65, 1.24, 0.57, 0.8, 1.2, 1.34, 0.89, 0.89, 0.89, 0.63, 0.0, 0.0, 0.63, 1.6, 1.6, 1.34, 0.89, 0.89, 1.6, 1.58, 0.6, 0.8, 1.58, 2.6, 2.95, 0.0, 1.6, 7.11, 7.89, 7.71, 7.71, 9.26, 10.45, 10.79, 11.2, 9.52, 9.3, 8.65, 6.24, 2.2, 0.0, -2.29, -3.8, -4.71, -3.79, -3.55, -2.8, -2.11, -0.73, -0.54, -2.68, -6.26, -7.6, -8.67, -8.49, -7.85, -6.9, -6.25, -5.64, -4.43, -6.07, -8.55, -8.4, -3.97, -2.68, -12.45, -11.92, -11.92, -11.92, -11.92, -11.58, -11.33, -11.33, -10.72, -10.4, -10.09, -9.46, -9.13, -8.5, -7.9, -6.98, -6.06, -5.09, -5.09, -5.08, -5.69, -5.86, -5.14, -3.99, -2.87, -2.28, -1.71, -0.57, 0.0, 0.0, 0.0, -0.0, -0.0, 0.6, 0.95, 1.2, 1.7, 1.79, 1.34, 0.45, 0.0, 0.0, 0.0, -1.34, 0.0, 1.58, 1.26, 0.95, -0.0, -0.0, -0.0, 0.0, -0.89, -0.89, -0.89, -0.45, 0.0, 0.0, 0.0, 1.79, 6.98, 8.05, 7.31, 7.52, 7.89, 8.19, 8.48, 8.55, 8.72, 8.06, 9.0, 7.27, 4.03, 0.7, -0.76, -2.2, -0.76, 0.0, 0.0, 0.0, 0.0, -0.73, -1.49, -3.74, -6.71, -8.4, -8.3, -7.6, -7.2, -6.8, -6.54, -5.2, -6.11, -7.21, -8.25, -7.21, -3.51, -1.34, -11.92, -11.92, -11.92, -11.92, -11.58, -11.33, -11.33, -11.33, -10.72, -10.4, -9.8, -9.17, -8.85, -8.53, -7.93, -7.93, -7.32, -6.98, -6.08, -5.95, -6.31, -6.27, -6.46, -5.96, -4.77, -3.47, -2.33, -1.73, -0.57, 0.0, 0.0, 0.0, 0.0, 0.0, 2.24, 3.58, 4.02, 2.24, 2.4, 0.0, 0.0, -1.58, -1.58, -1.79, 0.0, 2.4, 3.2, 2.4, -0.0, -0.0, -0.0, -0.89, -0.89, -0.45, 0.0, 0.0, -0.89, -1.4, -0.72, 2.98, 5.31, 6.26, 6.14, 6.14, 6.14, 6.23, 6.64, 6.23, 5.36, 5.75, 6.06, 4.71, 3.2, 0.7, -0.61, 0.0, 1.24, 2.53, 2.4, 1.6, 0.76, 0.0, -1.41, -3.49, -5.2, -8.63, -8.0, -6.94, -7.47, -7.47, -6.54, -6.36, -7.28, -7.56, -8.0, -4.4, 0.0, 0.0, -11.58, -11.58, -11.58, -11.58, -11.33, -11.33, -11.33, -11.03, -10.43, -10.12, -9.8, -9.48, -9.17, -8.56, -8.24, -8.24, -7.95, -7.33, -6.97, -6.31, -6.29, -5.83, -5.77, -5.28, -4.58, -3.41, -2.9, -1.72, -1.12, -0.58, 0.0, 0.0, 0.0, 0.0, 1.9, 1.79, 2.68, 2.6, 3.2, 0.0, -0.63, -0.6, -1.2, 0.0, 1.34, 2.8, 3.35, 3.2, 2.68, 1.79, 0.0, 0.0, 0.0, 0.0, 0.0, 0.0, -0.8, -0.85, 0.98, 4.65, 4.15, 4.77, 4.09, 4.24, 3.82, 4.24, 4.38, 4.77, 5.2, 4.29, 2.2, 0.78, 0.0, -0.71, -0.63, 1.86, 5.09, 5.59, 4.46, 4.03, 4.03, 2.29, 0.0, -1.49, -3.74, -4.41, -6.98, -6.66, -7.89, -8.4, -7.89, -8.24, -8.67, -8.76, -9.45, -6.35, 0.0, 0.0, -11.58, -11.58, -11.33, -11.33, -11.03, -11.03, -11.03, -10.43, -10.72, -10.12, -9.8, -9.5, -9.19, -8.87, -8.56, -8.24, -8.24, -7.96, -7.6, -6.94, -6.27, -5.8, -5.28, -4.62, -3.41, -2.85, -2.37, -1.73, -1.75, -1.19, -1.11, -1.14, -1.14, 0.0, 0.0, 1.26, 1.86, 1.58, 0.8, 0.0, -1.9, -1.2, 0.0, 0.0, 1.79, 3.13, 3.82, 3.58, 3.13, 3.13, 2.68, 1.58, 1.9, 1.9, 1.4, 0.0, 0.0, 1.19, 3.79, 5.01, 4.65, 3.79, 2.48, 2.8, 3.58, 4.02, 4.02, 3.13, 2.8, 1.19, -1.03, -2.8, -2.84, -1.86, 0.0, 3.95, 8.0, 8.65, 7.9, 6.64, 6.39, 3.9, 1.33, 0.0, -2.12, -2.24, -3.13, -6.26, -8.63, -8.55, -8.14, -7.76, -9.15, -10.38, -11.83, -8.59, 0.0, 0.0, -11.58, -11.33, -11.33, -11.03, -11.03, -11.03, -10.75, -10.43, -10.72, -10.12, -10.12, -9.5, -9.19, -8.87, -8.58, -7.96, -8.24, -8.24, -7.33, -6.94, -6.25, -5.77, -5.28, -3.96, -2.32, -1.79, -2.35, -2.35, -2.37, -2.85, -2.34, -2.3, -1.71, -1.14, -0.58, 0.0, 0.0, 0.0, 0.0, -0.85, -0.71, -0.8, -0.6, -0.6, 0.0, 3.13, 3.58, 3.58, 3.58, 3.39, 3.39, 2.84, 2.84, 2.84, 2.84, 2.48, 2.73, 3.22, 4.11, 4.11, 3.49, 3.49, 2.73, 4.02, 4.77, 4.38, 4.02, 2.68, 0.0, -3.45, -3.35, -3.0, -1.41, 0.0, 1.33, 4.09, 6.08, 6.31, 6.2, 5.38, 3.9, 2.4, 0.73, -1.58, -2.68, -3.58, -3.51, -5.81, -7.45, -7.71, -7.21, -7.28, -9.15, -11.3, -12.47, -7.9, 0.69, 0.69, -11.33, -11.33, -11.33, -11.03, -11.03, -10.75, -10.75, -10.43, -10.12, -10.12, -9.8, -9.5, -9.5, -8.87, -8.87, -8.01, -8.24, -7.6, -6.96, -6.27, -5.77, -6.4, -6.43, -4.75, -4.01, -3.41, -3.47, -3.82, -3.91, -3.5, -2.84, -2.33, -1.73, -1.12, -1.16, -1.12, -1.14, -1.7, -1.49, -0.99, -1.2, -0.85, -0.71, 0.0, 1.13, 2.84, 3.35, 3.35, 3.35, 3.35, 3.35, 3.72, 3.35, 3.72, 4.09, 4.29, 3.79, 3.79, 3.49, 3.49, 2.4, 2.73, 2.84, 4.02, 5.36, 5.36, 4.92, 2.98, 0.0, -1.1, -1.16, 0.75, 1.59, 2.39, 3.17, 1.47, 0.0, 0.0, 0.0, 0.77, 0.0, -0.72, -1.41, -1.88, -2.6, -2.63, -3.07, -2.4, -5.16, -3.53, -3.51, -6.28, -8.4, -9.86, -9.3, -3.8, 1.55, 1.55, -11.33, -11.33, -11.33, -11.03, -11.03, -10.75, -10.75, -10.43, -9.82, -9.82, -9.8, -9.5, -9.5, -9.21, -9.21, -8.24, -7.6, -7.61, -7.08, -6.2, -6.1, -7.76, -7.93, -7.01, -6.87, -5.51, -4.68, -4.05, -4.05, -2.9, -2.28, -1.75, -1.2, -1.14, -1.09, -1.1, -1.2, -1.2, -1.2, -1.12, -1.12, -0.57, -0.57, 0.0, 1.14, 2.16, 2.2, 2.73, 2.48, 3.16, 3.72, 3.72, 3.72, 3.72, 1.86, 2.4, 5.01, 2.84, 2.15, 2.2, 1.27, 2.21, 3.58, 4.92, 4.92, 4.92, 5.29, 4.6, 3.22, 2.4, 1.56, 3.1, 3.09, 1.61, 0.0, -2.37, -5.4, -7.36, -3.88, -2.4, -1.55, -1.55, -1.52, 0.0, 0.0, -0.54, 0.0, 0.54, -1.24, -0.8, -2.23, -4.09, -5.72, -5.43, -3.38, 0.0, 1.4, 1.4, -11.33, -11.33, -11.33, -11.03, -10.75, -10.75, -10.75, -10.13, -10.13, -9.82, -9.5, -9.21, -9.21, -9.21, -9.21, -8.59, -7.96, -7.96, -8.24, -7.63, -7.79, -7.83, -8.2, -7.55, -7.13, -6.46, -4.68, -3.86, -2.87, -2.39, -1.75, -1.2, -1.14, -1.16, -1.18, -1.1, -1.1, -1.1, -1.1, -0.59, -0.55, 0.0, 0.0, 0.0, 0.59, 1.1, 1.14, 2.4, 2.73, 2.48, 2.48, 2.23, 2.84, 3.72, 4.4, 2.4, 3.83, 3.48, 3.22, 1.6, 1.58, 3.13, 4.47, 4.77, 3.58, 3.58, 4.85, 5.34, 5.43, 5.59, 6.05, 6.31, 4.62, 0.0, -3.86, -6.97, -11.41, -11.52, -8.6, -5.21, -2.4, -0.76, 0.0, 1.36, 2.29, 1.33, 1.4, 1.33, 1.23, 0.0, -1.33, -3.07, -3.64, -2.73, -1.33, 0.0, 0.67, 0.67, -10.99, -10.99, -10.99, -10.43, -10.75, -10.75, -10.43, -10.13, -10.13, -9.82, -9.5, -9.5, -9.21, -9.21, -8.87, -8.87, -8.23, -8.51, -8.86, -8.85, -8.2, -6.92, -6.53, -6.5, -6.46, -5.28, -4.58, -3.44, -2.28, -1.67, -1.79, -1.16, -1.18, -1.14, -1.16, -1.18, -1.1, -1.1, -1.1, -0.59, -0.55, -0.58, 0.0, 0.0, 0.0, 0.61, 1.1, 1.05, 1.08, 1.41, 1.27, 2.23, 2.84, 3.35, 4.77, 4.8, 4.24, 5.43, 5.75, 3.2, 1.34, 3.47, 4.41, 4.47, 4.92, 4.47, 4.92, 5.31, 6.28, 7.74, 8.79, 10.04, 7.54, 1.52, -5.43, -8.58, -11.69, -13.23, -12.01, -9.19, -5.21, -2.26, 0.0, 1.52, 1.52, 1.55, 0.7, 0.0, -0.7, 0.0, -1.98, -2.66, -2.73, -1.33, -0.53, 0.0, 0.0, 0.0, -10.99, -10.99, -10.99, -10.72, -10.43, -10.43, -10.43, -10.13, -10.13, -9.82, -9.5, -9.5, -9.21, -8.87, -8.87, -8.87, -8.59, -8.86, -8.85, -8.83, -7.76, -6.46, -5.83, -5.62, -5.36, -5.11, -4.58, -4.07, -2.87, -2.9, -2.28, -1.67, -1.69, -1.73, -1.67, -1.14, -1.16, -1.09, -1.09, -1.09, -0.58, -0.58, -0.58, 0.0, 0.0, 0.0, 0.0, 0.0, 0.0, 1.27, 1.27, 2.23, 2.84, 3.35, 4.24, 4.77, 3.51, 5.16, 5.4, 3.74, 1.79, 4.38, 5.36, 5.36, 5.36, 5.36, 4.85, 4.41, 5.29, 5.81, 5.81, 3.39, 1.52, 1.74, -0.0, -3.97, -7.28, -10.53, -12.25, -11.94, -8.82, -5.3, -2.2, -0.72, -0.76, -0.66, -0.7, -1.49, -2.88, -1.47, -2.04, -0.7, -0.61, 0.0, 0.0, 0.0, 0.0, 0.0, -10.72, -10.72, -10.72, -10.72, -10.43, -10.43, -10.43, -10.13, -10.13, -10.13, -9.5, -9.5, -9.5, -8.87, -8.87, -8.59, -8.86, -8.58, -8.85, -8.18, -7.76, -6.88, -6.0, -5.8, -5.14, -5.32, -4.62, -4.07, -3.53, -3.56, -2.9, -2.37, -2.3, -2.33, -1.71, -1.73, -1.67, -1.2, -1.14, -1.14, -0.57, -0.54, -0.58, 0.0, 0.0, 0.0, 0.0, 0.0, 0.0, 1.41, 1.41, 1.41, 2.23, 2.53, 3.82, 3.82, 2.24, 2.68, 4.02, 4.4, 3.32, 2.24, 4.47, 4.02, 4.92, 5.36, 4.85, 5.2, 4.02, 3.58, 1.79, -2.09, 0.0, 3.96, 4.99, 2.99, 0.0, -5.81, -9.4, -11.2, -10.73, -8.24, -6.28, -4.87, -3.79, -2.98, -2.98, -3.79, -1.84, 1.88, 0.73, 2.0, 1.35, 0.0, 0.0, -0.66, 0.0, 0.0, -10.72, -10.72, -10.72, -10.72, -10.72, -10.43, -10.13, -10.13, -10.13, -10.13, -9.5, -9.21, -9.21, -9.5, -8.86, -8.86, -8.86, -8.58, -8.2, -8.2, -7.53, -7.1, -6.43, -6.22, -5.77, -5.32, -4.62, -4.1, -4.1, -3.44, -2.9, -2.93, -2.82, -2.3, -2.33, -2.35, -1.71, -1.73, -1.65, -1.18, -1.12, -0.56, -0.57, 0.0, 0.0, 0.0, 0.0, 0.0, 0.58, 0.59, 1.19, 1.05, 1.08, 1.27, 2.53, 3.39, 4.02, 1.7, 1.79, 2.4, 2.98, 2.54, 2.24, 2.68, 4.02, 3.58, 3.58, 3.95, 4.38, 1.9, -0.79, -2.31, 0.0, 4.62, 7.22, 7.88, 6.51, 1.58, -4.74, -9.08, -10.91, -10.45, -9.2, -7.85, -5.49, -3.72, -2.2, -1.84, 0.71, 4.73, 5.69, 5.64, 3.51, 0.79, -0.66, -1.2, 0.0, 0.0, -10.72, -10.72, -10.72, -10.43, -10.43, -10.13, -9.82, -9.82, -9.82, -9.82, -9.5, -9.21, -9.21, -9.21, -8.86, -8.86, -8.58, -8.58, -8.2, -7.8, -7.53, -7.1, -6.88, -6.43, -5.96, -5.77, -5.11, -4.62, -3.96, -3.44, -3.6, -2.93, -2.93, -2.96, -2.3, -2.33, -2.35, -1.71, -1.71, -1.73, -1.16, -1.11, -1.18, -0.56, -0.57, 0.0, 0.0, 0.0, 0.0, 0.0, 0.53, 0.59, 0.0, 0.0, 1.13, 2.53, 3.13, 3.2, 2.8, 2.24, 3.35, 2.97, 3.58, 4.92, 4.47, 3.13, 3.58, 3.47, 4.22, 2.41, 0.0, 0.0, 0.82, 3.83, 6.97, 9.43, 9.1, 5.1, -0.72, -7.21, -11.09, -11.94, -11.1, -9.2, -5.59, -3.11, -1.41, 0.0, 1.88, 3.07, 2.53, 5.59, 4.05, 2.11, 0.0, 0.0, 0.6, 0.6, -10.43, -10.43, -10.43, -10.43, -10.13, -9.82, -9.82, -9.82, -9.82, -9.82, -9.5, -9.5, -9.21, -9.21, -9.21, -8.85, -8.85, -8.58, -8.2, -7.8, -7.55, -6.88, -6.88, -6.43, -6.43, -5.96, -5.28, -4.62, -4.62, -3.96, -3.6, -3.6, -3.47, -2.82, -2.96, -2.3, -2.33, -2.23, -2.35, -2.25, -1.71, -1.73, -1.73, -1.11, -0.59, -0.56, 0.0, 0.0, 0.0, 0.0, 0.0, 0.0, 0.0, 0.0, 0.0, 0.57, 2.4, 2.4, 1.26, 1.6, 3.58, 4.85, 5.7, 5.36, 5.81, 4.02, 2.68, 2.0, 2.53, 1.8, 0.0, 0.0, 0.0, 1.58, 4.65, 6.9, 5.51, 2.81, 0.0, -4.24, -9.7, -11.88, -11.42, -9.21, -6.64, -4.94, -3.09, -0.66, 1.16, 1.88, 1.16, 0.67, 2.31, 2.31, 1.36, 1.27, 1.84, 1.84, -10.43, -10.43, -10.43, -10.13, -9.82, -9.82, -9.82, -9.82, -9.82, -9.82, -9.5, -9.5, -9.21, -9.21, -8.86, -8.85, -8.85, -8.58, -8.2, -8.2, -7.55, -7.13, -6.88, -6.43, -6.43, -5.96, -5.77, -5.28, -5.11, -4.62, -4.1, -3.96, -3.6, -3.47, -2.96, -2.84, -2.33, -2.33, -2.23, -2.35, -2.25, -1.71, -1.73, -1.11, -1.18, -0.56, -0.56, -0.57, -0.57, 0.0, 0.0, 0.0, 0.0, 0.0, 0.0, 0.0, 1.2, 2.24, 1.26, 1.49, 3.58, 4.92, 5.36, 5.36, 5.36, 5.81, 2.12, 0.0, -0.63, 0.0, 0.0, 0.0, -0.8, -0.77, 0.0, -0.8, -1.57, -0.77, 0.0, -1.86, -6.26, -9.43, -10.16, -9.82, -7.94, -6.95, -4.02, -0.61, 0.0, 0.7, 0.0, 0.0, 0.78, 2.1, 3.46, 4.2, 4.28, 4.28, -10.43, -10.43, -10.13, -10.13, -9.82, -9.82, -9.82, -9.5, -9.5, -9.5, -9.5, -9.5, -9.5, -9.21, -8.86, -8.85, -8.85, -8.58, -8.2, -8.2, -7.55, -7.55, -6.88, -6.88, -6.43, -5.96, -5.77, -5.28, -5.11, -4.62, -4.62, -4.1, -4.13, -3.47, -3.34, -2.96, -2.84, -2.87, -2.33, -2.23, -2.35, -2.25, -1.73, -1.58, -0.79, 0.0, -0.56, -1.12, -1.2, -0.57, -0.58, -0.55, -0.59, -0.56, -0.58, -0.63, 0.0, 2.24, 1.34, 2.12, 2.17, 4.02, 4.47, 4.92, 4.92, 5.81, 5.75, 0.89, -1.79, -1.34, 0.98, 2.4, 0.77, -1.52, -5.63, -8.18, -7.01, -3.91, -0.74, 0.0, -2.6, -7.13, -8.72, -7.9, -6.35, -4.07, -1.4, 0.0, 0.0, 0.0, 0.65, 1.2, 2.11, 2.7, 4.23, 5.0, 5.32, 5.32, -10.43, -10.43, -10.13, -10.13, -9.82, -9.82, -9.5, -9.5, -9.5, -9.5, -9.5, -9.5, -9.5, -9.21, -8.86, -8.58, -8.58, -8.2, -8.2, -8.2, -7.55, -7.55, -7.55, -7.13, -6.43, -6.22, -5.77, -5.28, -5.28, -4.62, -4.62, -4.62, -3.96, -4.13, -3.47, -3.5, -3.37, -2.84, -2.87, -2.87, -2.23, -2.35, -2.25, -1.65, -1.14, -0.71, -0.8, -1.69, -1.81, -1.71, -1.16, -1.16, -0.58, -0.59, -1.1, -1.14, -0.57, 0.0, 1.2, 1.79, 1.7, 3.58, 1.79, 2.24, 6.26, 6.21, 7.6, 5.26, 0.89, 0.0, 2.21, 4.83, 5.6, 2.33, -3.14, -7.82, -8.61, -5.6, -2.28, 0.0, -0.73, -3.88, -5.09, -4.55, -2.48, 0.0, 0.61, 0.0, 0.0, 0.0, 1.2, 2.15, 2.8, 3.15, 4.31, 4.73, 4.73, 4.73, -10.43, -10.43, -10.13, -10.13, -9.82, -9.5, -9.5, -9.5, -9.5, -9.5, -9.5, -9.5, -9.5, -8.86, -8.86, -8.86, -8.58, -8.2, -8.2, -8.2, -7.8, -7.55, -7.55, -7.13, -6.68, -6.46, -5.77, -5.28, -4.62, -4.77, -4.77, -4.62, -4.62, -4.13, -3.99, -3.5, -3.5, -3.37, -2.99, -2.87, -2.87, -2.23, -2.25, -2.28, -2.3, -2.44, -1.58, -1.69, -1.71, -1.73, -1.73, -1.18, -1.18, -1.09, -1.18, -1.1, -1.05, 0.0, 0.53, 1.2, 1.34, 1.34, 1.79, 5.36, 5.31, 5.09, 6.21, 7.5, 6.7, 2.21, 2.6, 5.49, 6.2, 7.08, 3.89, -2.3, -7.01, -6.87, -5.2, -3.2, -1.39, -1.38, -1.65, -1.11, 0.0, 0.57, 1.07, 1.36, 1.4, 1.36, 2.04, 2.11, 2.04, 2.9, 3.53, 4.15, 4.32, 4.32, -10.43, -10.43, -10.13, -10.13, -9.82, -9.5, -9.5, -9.5, -9.5, -9.21, -9.21, -9.21, -9.21, -8.86, -8.86, -8.86, -8.58, -8.2, -8.2, -7.95, -7.55, -7.55, -7.55, -7.13, -6.9, -6.46, -6.0, -5.8, -4.65, -4.65, -4.62, -4.62, -4.62, -4.13, -3.99, -3.99, -3.5, -3.5, -3.37, -2.99, -2.87, -2.87, -2.35, -2.25, -2.39, -2.77, -2.25, -1.73, -1.67, -1.71, -1.71, -1.18, -1.18, -1.18, -1.18, -1.18, -1.2, -1.05, 0.0, 0.65, 0.63, 1.34, 2.24, 3.58, 4.02, 3.04, 2.54, 4.47, 5.01, 4.75, 4.43, 4.43, 4.71, 5.33, 5.42, 2.4, -2.34, -5.43, -5.59, -4.84, -2.84, 0.0, 0.69, 0.56, 0.59, 0.56, 0.58, 0.58, 1.58, 2.06, 2.01, 2.12, 2.18, 2.06, 3.31, 3.53, 3.47, 3.47, -10.43, -10.43, -10.13, -10.13, -9.82, -9.5, -9.5, -9.5, -9.21, -9.21, -8.86, -8.86, -8.86, -8.86, -8.86, -8.86, -8.58, -8.2, -8.2, -7.95, -7.55, -7.55, -7.55, -7.13, -6.9, -6.46, -6.46, -6.0, -5.8, -4.75, -4.51, -4.48, -4.13, -4.13, -3.99, -3.99, -4.02, -3.5, -3.37, -3.37, -2.99, -2.87, -2.87, -2.9, -2.35, -2.35, -2.35, -1.71, -1.73, -1.75, -1.78, -1.69, -1.16, -1.16, -1.09, -1.16, -1.16, -1.76, -1.16, 0.0, 0.54, 1.79, 4.47, 3.58, 3.58, 3.58, 4.47, 3.13, 2.84, 3.49, 4.74, 3.22, 1.73, 0.8, 1.59, 3.24, 2.34, 0.0, -2.07, -2.75, -2.06, 0.0, 0.7, 1.42, 0.58, 0.0, 0.0, 0.0, 0.0, 0.76, 1.56, 1.43, 1.43, 1.36, 1.45, 3.07, 2.82, 2.82, -10.43, -10.43, -10.13, -10.13, -10.13, -9.5, -9.5, -9.21, -9.21, -8.86, -8.86, -8.86, -8.86, -8.86, -8.86, -8.86, -8.2, -8.2, -7.95, -7.95, -7.55, -7.55, -7.55, -6.9, -6.9, -6.46, -6.46, -6.22, -6.43, -5.32, -4.65, -4.68, -3.99, -3.99, -3.99, -3.99, -4.17, -3.5, -3.5, -3.37, -3.53, -2.87, -2.87, -2.87, -2.9, -2.35, -2.35, -2.25, -1.71, -1.73, -1.65, -1.75, -1.78, -1.14, -1.14, -1.16, -1.16, -1.16, -1.65, -0.59, 1.9, 3.13, 4.47, 5.36, 4.02, 4.85, 4.85, 4.38, 4.66, 5.6, 5.82, 4.47, 1.14, 0.0, 0.0, 2.36, 5.69, 5.56, 2.85, 0.0, -2.1, -2.13, -1.42, -0.71, 0.0, 0.0, 0.0, 0.0, 0.0, 0.0, 0.0, 0.77, 0.0, 0.0, 0.0, 1.39, 1.41, 1.41, -10.13, -10.13, -10.13, -10.13, -10.13, -9.5, -9.5, -9.21, -9.21, -8.86, -8.86, -8.86, -8.86, -8.86, -8.86, -8.2, -8.2, -8.2, -7.95, -7.55, -7.55, -7.55, -7.55, -6.9, -6.9, -6.9, -6.46, -6.46, -6.22, -5.77, -5.32, -4.65, -4.65, -4.65, -3.99, -3.99, -4.17, -3.5, -3.5, -3.37, -3.53, -3.53, -2.87, -2.87, -2.87, -2.87, -2.35, -2.35, -2.25, -2.39, -1.73, -1.73, -1.65, -1.75, -1.67, -1.2, -1.14, -1.14, -1.16, 0.0, 0.59, 2.8, 4.02, 5.36, 5.7, 5.2, 4.57, 4.38, 4.92, 6.02, 6.07, 5.69, 3.45, 1.55, 0.0, 1.53, 5.56, 7.84, 7.22, 3.92, 0.0, -2.09, -2.81, -2.72, -1.43, -0.59, 0.0, 0.0, 0.0, 0.0, 0.0, 0.0, 0.0, -0.74, -0.71, -0.69, 0.0, 0.0, -10.13, -10.13, -10.13, -10.13, -10.13, -9.5, -9.5, -9.21, -9.21, -8.86, -8.86, -8.86, -8.86, -8.49, -8.49, -8.2, -8.2, -8.2, -7.95, -7.55, -7.55, -7.55, -7.31, -6.9, -6.9, -6.9, -6.9, -6.46, -6.46, -6.0, -5.8, -5.32, -5.32, -4.65, -4.65, -3.99, -4.17, -4.02, -3.5, -3.37, -3.53, -3.53, -2.87, -2.87, -2.87, -2.87, -2.87, -2.35, -2.35, -2.25, -2.28, -2.28, -1.73, -1.73, -1.65, -1.75, -1.12, -1.12, -0.61, 0.0, 0.0, 1.76, 3.72, 3.51, 4.66, 4.8, 3.58, 3.95, 4.92, 5.31, 5.75, 5.77, 5.69, 4.65, 2.28, 0.76, 2.33, 4.62, 4.66, 3.57, 1.42, 0.0, 0.0, -0.72, -0.71, 0.0, 0.0, 0.0, 0.0, 0.0, 0.0, 0.0, 0.0, 0.0, -0.72, -0.74, -0.71, -0.71, -10.13, -10.13, -10.13, -10.13, -10.13, -9.5, -9.21, -9.21, -9.21, -8.86, -8.86, -8.86, -8.86, -8.49, -8.2, -8.2, -8.2, -8.2, -7.55, -7.55, -7.55, -7.55, -6.9, -6.9, -6.9, -6.9, -6.9, -6.46, -6.46, -5.8, -5.8, -5.32, -5.32, -5.14, -4.65, -4.48, -4.17, -4.17, -4.02, -4.02, -3.53, -3.53, -3.42, -2.39, -2.28, -2.9, -2.87, -2.75, -2.9, -2.77, -2.39, -2.28, -2.28, -1.73, -1.73, -1.73, -1.75, -1.18, -0.56, 0.0, 0.0, 1.73, 3.49, 3.83, 4.22, 4.11, 3.16, 4.15, 4.92, 5.36, 6.02, 6.4, 6.95, 7.92, 5.56, 1.51, 0.0, 0.0, -0.78, 0.0, 0.72, 2.08, 2.09, 1.39, 0.69, 0.67, 0.69, 0.0, 0.0, 0.0, 0.0, 0.0, 0.0, 0.0, 0.0, 0.0, 0.0, -0.69, -10.13, -10.13, -10.13, -10.13, -10.13, -9.5, -9.21, -9.21, -9.21, -8.86, -8.86, -8.86, -8.86, -8.2, -8.2, -8.2, -8.2, -7.8, -7.55, -7.55, -7.55, -7.55, -6.9, -6.9, -6.9, -6.9, -6.9, -6.46, -6.25, -6.25, -5.8, -5.8, -5.32, -5.32, -5.14, -4.65, -4.68, -4.68, -4.02, -4.02, -4.05, -3.53, -3.42, -2.28, -2.28, -2.35, -3.03, -3.42, -2.9, -2.9, -2.93, -2.39, -2.28, -2.28, -1.73, -1.73, -1.73, -1.11, -0.56, 0.0, 0.57, 1.73, 2.12, 3.48, 3.48, 3.79, 4.11, 5.09, 5.81, 6.26, 6.26, 7.06, 6.52, 6.9, 8.5, 7.15, 1.54, -2.28, -4.24, -3.57, -1.4, 0.0, 1.4, 2.1, 2.1, 2.02, 2.02, 1.5, 1.47, 0.73, 0.0, 0.0, 0.0, 0.0, -0.77, -0.69, -0.69, 0.0, -10.13, -10.13, -10.13, -10.13, -10.13, -9.8, -9.21, -9.21, -9.21, -8.86, -8.86, -8.86, -8.86, -8.2, -8.2, -8.2, -8.2, -8.2, -7.8, -7.55, -7.55, -7.55, -7.13, -6.9, -6.9, -6.9, -6.9, -6.46, -6.25, -6.25, -5.8, -5.8, -5.8, -5.14, -5.14, -5.14, -4.68, -4.68, -4.68, -4.02, -4.02, -4.05, -3.89, -3.45, -3.11, -2.77, -3.42, -3.42, -3.45, -3.45, -2.93, -2.93, -2.28, -2.28, -2.28, -1.73, -1.73, -1.18, -0.56, 0.0, 0.58, 1.18, 1.67, 2.32, 2.4, 2.98, 3.48, 5.09, 6.26, 6.26, 6.26, 6.02, 5.59, 5.98, 9.66, 12.07, 9.54, 3.1, -0.76, -2.82, -2.11, -1.3, 0.0, 0.67, 1.45, 1.39, 1.41, 1.46, 0.75, 0.74, 0.0, 0.0, -0.73, -0.75, -1.56, -1.56, -1.45, -0.69, -10.13, -10.13, -10.13, -10.13, -10.13, -9.5, -9.21, -9.21, -9.21, -8.86, -8.86, -8.86, -8.86, -8.2, -8.2, -8.2, -8.2, -7.8, -7.8, -7.55, -7.55, -7.13, -7.13, -7.13, -7.13, -7.13, -6.9, -6.46, -6.25, -6.25, -5.8, -5.8, -5.8, -5.6, -5.36, -5.36, -5.17, -4.68, -4.68, -4.68, -4.51, -4.21, -4.05, -4.08, -4.08, -3.25, -3.45, -3.3, -3.49, -2.97, -2.97, -2.97, -2.8, -2.28, -2.28, -1.73, -1.73, -1.18, -0.56, 0.0, 0.0, 1.1, 1.1, 1.14, 2.4, 2.2, 3.58, 5.2, 5.81, 6.26, 6.26, 5.59, 5.01, 4.75, 6.98, 10.19, 11.84, 10.65, 7.15, 3.78, 0.66, 0.7, 1.32, 1.39, 1.41, 0.67, 0.0, 0.0, 0.0, 0.0, 0.0, -0.72, -1.47, -1.56, -2.25, -2.31, -2.31, -2.31, -10.13, -10.13, -10.13, -10.13, -9.84, -9.5, -9.21, -9.21, -9.21, -8.86, -8.86, -8.86, -8.86, -8.58, -8.2, -8.2, -8.2, -8.2, -7.8, -7.55, -7.55, -7.13, -7.13, -7.13, -7.13, -7.13, -6.46, -6.46, -6.25, -6.25, -6.25, -5.8, -5.8, -5.83, -5.36, -5.36, -5.17, -5.17, -4.68, -4.68, -4.51, -4.51, -4.54, -4.54, -4.54, -4.05, -3.42, -2.93, -2.97, -2.83, -2.83, -2.83, -2.83, -2.83, -2.42, -2.28, -1.65, -1.18, -0.56, 0.0, 0.0, 0.59, 0.57, 1.23, 1.3, 1.19, 2.73, 5.2, 5.81, 6.26, 5.75, 5.09, 4.65, 4.81, 4.75, 4.6, 7.0, 9.8, 11.58, 11.16, 10.17, 9.18, 7.8, 5.73, 4.23, 2.35, 0.73, 0.0, -0.69, -1.47, -1.47, -1.47, -2.23, -2.35, -2.39, -2.97, -2.97, -2.97, -10.13, -10.13, -10.13, -10.13, -9.5, -9.5, -9.21, -9.21, -9.21, -8.86, -8.86, -8.86, -8.86, -8.58, -8.2, -8.2, -8.2, -8.2, -7.8, -7.8, -7.13, -7.13, -7.13, -7.13, -7.13, -7.13, -6.46, -6.46, -6.46, -6.46, -6.25, -5.8, -5.8, -5.83, -5.83, -5.36, -5.17, -5.17, -5.17, -4.68, -4.68, -4.51, -4.72, -4.72, -4.54, -4.05, -3.39, -2.9, -2.93, -2.8, -2.83, -2.83, -2.83, -2.3, -2.3, -2.3, -1.75, -1.12, -0.57, 0.0, 0.0, 0.0, 0.0, 0.0, 0.0, 1.19, 2.73, 5.2, 5.81, 5.81, 4.85, 4.66, 4.6, 4.43, 3.33, 3.15, 3.96, 7.15, 9.6, 13.02, 14.72, 14.61, 12.62, 9.8, 7.22, 4.88, 2.91, 0.71, -0.73, -2.26, -2.2, -2.12, -2.26, -3.06, -3.21, -3.15, -3.15, -3.15, -10.13, -10.13, -10.13, -9.5, -9.5, -9.5, -9.21, -9.21, -8.86, -8.86, -8.86, -8.86, -8.58, -8.58, -8.2, -8.2, -8.2, -8.2, -8.2, -7.8, -7.55, -7.13, -6.88, -6.88, -6.88, -7.13, -6.46, -6.46, -6.46, -6.46, -6.46, -6.25, -5.8, -5.83, -5.83, -5.83, -5.17, -5.17, -5.17, -5.17, -4.68, -4.51, -4.51, -4.72, -4.54, -4.05, -3.89, -3.39, -2.9, -2.93, -2.8, -2.97, -2.3, -2.3, -2.3, -1.67, -1.67, -1.14, -1.14, -0.58, 0.0, 0.0, 0.0, 0.0, 0.0, 1.19, 2.73, 4.22, 5.36, 5.36, 5.36, 4.66, 4.6, 4.43, 3.33, 3.09, 3.95, 5.45, 7.91, 11.14, 13.9, 15.08, 12.99, 9.6, 7.92, 6.35, 5.01, 2.98, 0.75, -0.71, -2.4, -2.2, -3.2, -3.15, -2.99, -3.09, -3.09, -3.09, -9.82, -9.82, -10.13, -9.5, -9.5, -9.21, -9.21, -9.21, -8.86, -8.86, -8.86, -8.86, -8.58, -8.58, -8.2, -8.2, -8.2, -8.2, -8.2, -7.8, -7.55, -7.1, -7.1, -7.1, -6.88, -7.13, -6.46, -6.46, -6.46, -6.46, -6.46, -6.25, -5.8, -6.04, -5.83, -5.83, -5.83, -5.17, -5.17, -5.17, -5.17, -5.2, -4.72, -4.72, -4.54, -4.05, -3.89, -3.57, -3.42, -3.42, -2.93, -2.8, -2.8, -2.3, -2.3, -1.67, -1.78, -1.14, -1.16, -0.55, -0.56, 0.0, 0.0, 0.0, 0.0, 0.0, 1.55, 3.22, 4.85, 4.92, 4.92, 4.66, 4.6, 4.11, 3.9, 4.03, 4.2, 4.75, 7.13, 9.49, 12.56, 13.55, 11.66, 9.6, 8.9, 6.44, 5.01, 2.79, 1.5, 0.0, -3.45, -3.07, -4.01, -3.79, -4.03, -3.9, -3.9, -3.9, -9.82, -9.82, -9.5, -9.5, -9.21, -9.21, -9.21, -9.21, -8.86, -8.86, -8.86, -8.58, -8.58, -8.58, -8.2, -8.2, -8.2, -8.2, -8.2, -7.8, -7.55, -7.53, -7.1, -7.1, -6.88, -6.88, -6.68, -6.46, -6.46, -6.46, -6.46, -6.25, -5.8, -6.04, -5.83, -5.83, -5.83, -5.17, -5.17, -5.17, -5.4, -5.2, -4.72, -4.72, -4.54, -4.54, -4.05, -4.08, -3.57, -3.42, -3.27, -2.93, -2.8, -2.8, -2.3, -2.19, -1.78, -1.69, -1.16, -1.09, -0.59, -0.56, 0.0, 0.0, 0.0, 0.0, 1.41, 3.72, 5.2, 5.29, 4.92, 4.85, 4.6, 4.43, 4.29, 4.42, 4.96, 5.63, 7.12, 8.46, 9.31, 10.91, 11.79, 12.53, 11.07, 7.22, 3.56, 1.44, 0.78, -0.7, -1.88, -2.84, -3.49, -4.11, -4.43, -4.11, -4.11, -4.11, -9.5, -9.5, -9.5, -9.5, -9.21, -9.21, -9.21, -8.86, -8.86, -8.86, -8.86, -8.58, -8.58, -8.58, -8.2, -8.2, -8.2, -8.2, -8.2, -7.55, -7.55, -7.53, -7.53, -7.1, -7.1, -6.88, -6.43, -6.43, -6.43, -6.46, -6.46, -6.46, -6.25, -6.04, -5.83, -5.83, -5.83, -5.62, -5.17, -5.17, -5.4, -5.2, -5.2, -4.54, -4.54, -4.54, -4.76, -4.08, -4.08, -3.42, -3.42, -2.93, -2.93, -2.8, -2.42, -2.3, -1.67, -1.78, -1.14, -1.16, -0.55, -0.59, 0.0, 0.0, 0.0, 0.0, 1.19, 3.72, 5.2, 4.85, 4.38, 4.38, 4.6, 4.11, 5.15, 5.06, 5.3, 6.14, 7.82, 8.22, 7.73, 9.28, 13.0, 14.99, 12.76, 8.1, 3.61, 1.38, 0.0, 0.0, -1.9, -3.32, -3.6, -3.83, -3.49, -3.49, -3.49, -3.49, -9.5, -9.5, -9.5, -9.5, -9.5, -9.21, -9.21, -8.86, -8.86, -8.86, -8.86, -8.58, -8.58, -8.58, -8.2, -8.2, -8.2, -8.2, -8.2, -7.55, -7.55, -7.8, -7.53, -7.1, -7.1, -6.88, -6.43, -6.43, -6.43, -6.46, -6.46, -6.46, -6.25, -5.8, -5.83, -5.83, -5.83, -5.62, -5.62, -5.4, -5.4, -5.2, -5.2, -4.54, -4.76, -4.76, -4.57, -4.08, -4.08, -3.91, -3.42, -3.45, -2.93, -2.93, -2.97, -2.3, -2.3, -1.78, -1.69, -1.14, -1.16, -0.55, 0.0, 0.0, 0.0, 0.0, 1.7, 3.48, 4.57, 4.85, 3.51, 1.34, 3.6, 4.19, 5.21, 5.82, 5.77, 6.39, 8.03, 8.27, 7.82, 8.46, 11.7, 13.5, 11.4, 7.52, 1.41, 0.0, 0.0, 0.59, 0.0, -2.17, -3.07, -2.91, -2.91, -2.91, -2.91, -2.91, -9.5, -9.5, -9.5, -9.5, -9.5, -9.21, -9.21, -8.86, -8.86, -8.86, -8.86, -8.58, -8.85, -8.58, -8.2, -8.2, -8.2, -8.2, -7.95, -7.55, -7.55, -7.8, -7.8, -7.53, -7.1, -6.88, -6.88, -6.43, -6.43, -6.43, -6.46, -6.46, -6.25, -5.8, -6.04, -5.83, -5.83, -5.62, -5.62, -5.4, -5.2, -5.2, -5.2, -5.0, -4.76, -4.76, -4.57, -4.57, -4.08, -4.08, -3.91, -3.61, -3.45, -2.8, -2.97, -2.83, -2.3, -2.19, -1.78, -1.69, -1.16, -1.16, -0.55, 0.0, 0.0, 0.0, 1.7, 3.79, 4.66, 4.41, 3.74, 2.23, 1.2, 3.2, 4.6, 5.21, 5.82, 6.44, 6.7, 7.27, 7.9, 7.9, 8.53, 9.54, 8.18, 2.85, 1.45, 0.0, 0.0, 0.59, 1.35, 0.0, -2.24, -2.24, -2.24, -1.79, -1.79, -1.79, -9.5, -9.5, -9.5, -9.5, -9.5, -9.5, -8.86, -8.86, -8.86, -8.86, -8.86, -8.58, -8.58, -8.58, -8.2, -8.2, -8.2, -8.2, -7.95, -7.55, -7.55, -7.8, -7.8, -7.8, -7.13, -6.88, -6.88, -6.43, -6.43, -6.43, -6.46, -6.46, -6.46, -5.8, -6.04, -5.83, -5.83, -5.62, -5.62, -5.4, -5.2, -5.2, -5.2, -5.23, -4.76, -4.57, -4.57, -4.57, -4.08, -4.08, -3.91, -3.91, -3.45, -3.45, -2.97, -2.83, -2.83, -2.33, -2.33, -1.69, -1.69, -1.16, -0.55, -0.55, 0.0, 0.0, 0.88, 3.16, 4.85, 5.29, 4.15, 3.83, 2.6, 2.12, 4.38, 5.2, 5.82, 6.21, 5.77, 6.39, 6.95, 7.27, 7.18, 5.55, 2.99, 2.16, 1.39, 0.0, -0.59, -0.53, 0.67, 0.69, -1.16, -1.79, -1.2, -0.63, -0.63, -0.63, -9.21, -9.21, -9.21, -9.5, -9.5, -9.5, -8.86, -8.86, -8.86, -8.86, -8.86, -8.58, -8.58, -8.58, -8.2, -8.2, -8.2, -7.95, -7.95, -7.55, -7.55, -7.8, -7.55, -7.55, -7.55, -7.13, -6.88, -6.88, -6.43, -6.43, -6.46, -6.46, -6.46, -6.25, -6.04, -5.83, -5.83, -5.62, -5.86, -5.86, -5.2, -5.2, -5.0, -5.23, -5.23, -4.57, -4.57, -4.57, -4.57, -4.08, -3.91, -3.91, -4.12, -3.45, -3.49, -2.97, -2.83, -2.86, -2.33, -2.21, -1.81, -1.71, -1.16, -0.55, 0.0, 0.0, 0.0, 2.53, 4.47, 4.47, 4.15, 4.8, 4.84, 4.8, 3.95, 5.09, 5.75, 5.82, 5.15, 5.06, 6.06, 7.35, 6.31, 3.19, 2.23, 2.22, 1.43, 0.0, -0.69, -1.84, -1.94, -1.36, -1.49, -1.26, -0.4, -0.0, -0.0, -0.0, -9.21, -9.21, -9.21, -9.21, -9.21, -9.16, -8.86, -8.86, -8.86, -8.86, -8.86, -8.86, -8.58, -8.58, -8.2, -8.2, -8.2, -8.22, -7.95, -7.55, -7.55, -7.8, -7.55, -7.55, -7.55, -7.13, -7.13, -6.88, -6.43, -6.43, -6.46, -6.46, -6.46, -6.25, -6.04, -5.83, -5.83, -5.62, -5.86, -5.86, -5.2, -5.2, -5.23, -5.23, -5.23, -4.57, -4.57, -4.57, -4.8, -4.38, -3.91, -3.91, -3.94, -3.45, -3.49, -2.97, -2.83, -3.01, -2.33, -2.21, -2.37, -1.71, -1.16, -1.09, -0.56, -0.53, 0.0, 0.99, 3.13, 2.24, 3.47, 3.6, 3.48, 3.84, 3.83, 4.66, 5.09, 5.21, 4.81, 4.81, 5.46, 6.39, 6.09, 5.66, 5.22, 3.57, 1.43, 0.0, -1.4, -3.16, -4.43, -4.12, -1.52, 0.0, 0.45, 1.34, 1.34, 1.34, -9.21, -9.21, -9.21, -9.21, -9.21, -8.87, -9.16, -8.86, -8.86, -8.86, -8.86, -8.86, -8.86, -8.58, -8.2, -8.49, -8.22, -8.22, -7.95, -7.55, -7.55, -7.55, -7.55, -7.55, -7.55, -7.13, -7.13, -7.13, -7.13, -6.43, -6.46, -6.46, -6.46, -6.25, -6.04, -5.83, -5.83, -5.62, -5.86, -5.86, -5.2, -5.2, -5.23, -5.23, -5.23, -4.57, -4.57, -4.8, -4.6, -4.6, -4.12, -4.12, -4.12, -3.45, -3.3, -3.49, -2.83, -3.01, -2.86, -2.21, -2.37, -1.71, -1.71, -1.18, -0.59, -0.57, -0.54, 0.0, 2.0, 2.0, 2.54, 2.6, 2.84, 3.58, 3.58, 3.6, 4.57, 4.6, 4.84, 4.84, 4.84, 5.15, 6.33, 7.11, 6.44, 4.74, 2.35, 0.0, -1.4, -3.53, -4.66, -2.79, 0.0, 1.34, 1.79, 2.4, 2.4, 2.4, -9.5, -9.5, -9.21, -9.21, -8.87, -8.87, -8.87, -8.86, -8.86, -8.86, -8.86, -8.86, -8.86, -8.49, -8.49, -8.22, -8.22, -8.22, -8.22, -7.55, -7.55, -7.55, -7.55, -7.55, -7.55, -7.13, -7.13, -7.13, -7.13, -6.68, -6.46, -6.46, -6.46, -6.25, -6.04, -5.83, -5.83, -5.62, -5.86, -5.86, -5.2, -5.2, -5.23, -5.23, -5.23, -4.57, -4.8, -4.8, -4.6, -4.6, -4.6, -4.12, -4.12, -3.94, -3.45, -3.49, -3.32, -3.01, -2.86, -2.21, -2.37, -2.23, -1.71, -1.73, -1.18, -1.1, -0.53, 0.0, 0.54, 2.0, 2.0, 1.74, 1.98, 2.84, 3.22, 2.53, 2.21, 3.6, 3.58, 4.22, 3.93, 3.22, 3.32, 3.83, 4.77, 3.92, 2.8, 1.39, -0.6, -3.07, -2.4, -0.0, 1.79, 1.86, 2.8, 3.32, 3.32, 3.32, -9.5, -9.5, -9.5, -9.21, -8.87, -8.87, -8.87, -8.86, -8.86, -8.86, -8.86, -8.86, -8.86, -8.49, -8.22, -8.22, -8.22, -8.22, -8.22, -7.55, -7.55, -7.55, -7.55, -7.55, -7.13, -7.13, -7.13, -6.9, -6.9, -6.46, -6.46, -6.46, -6.46, -6.25, -6.04, -5.83, -5.83, -5.62, -5.86, -5.86, -5.2, -5.2, -5.23, -5.23, -5.02, -5.02, -4.8, -4.8, -4.6, -4.6, -4.6, -4.12, -4.12, -3.94, -3.45, -3.49, -3.49, -3.01, -2.86, -2.86, -2.37, -2.23, -1.71, -1.73, -1.18, -1.1, -1.12, -0.61, 0.0, 1.0, 1.0, 1.74, 2.53, 2.84, 2.84, 2.84, 2.21, 2.6, 2.53, 2.84, 1.8, 0.81, 0.0, 0.0, 0.78, 0.77, 1.39, 1.38, 0.0, -1.86, -0.0, 1.7, 2.4, 2.84, 3.49, 4.46, 4.46, 4.46, -9.19, -9.19, -9.19, -9.17, -8.87, -8.87, -8.87, -8.87, -8.59, -8.86, -8.86, -8.86, -8.22, -8.22, -8.22, -8.22, -8.22, -8.22, -7.83, -7.83, -7.55, -7.55, -7.83, -7.57, -6.9, -6.9, -6.9, -6.9, -6.9, -6.9, -6.46, -6.46, -6.46, -6.25, -6.04, -5.83, -5.83, -5.62, -5.86, -5.86, -5.2, -5.2, -5.23, -5.23, -5.23, -5.02, -4.8, -4.8, -4.6, -4.6, -4.6, -4.12, -4.12, -3.94, -3.94, -3.49, -3.49, -3.52, -2.86, -2.86, -2.89, -2.37, -2.23, -1.84, -1.73, -1.18, -1.2, -1.16, -0.57, 0.0, 1.0, 1.74, 2.53, 2.53, 2.84, 2.84, 2.53, 2.21, 2.6, 1.98, 0.98, 0.0, -0.79, -1.63, -1.57, -0.81, 0.0, 0.0, 0.7, 0.0, 0.54, 1.9, 2.48, 3.79, 4.65, 5.37, 5.37, 5.37, -9.19, -9.19, -9.19, -8.87, -8.87, -8.87, -8.87, -8.87, -8.87, -8.59, -8.59, -8.59, -8.22, -8.22, -8.22, -8.22, -8.22, -8.22, -7.83, -7.83, -7.83, -7.83, -7.57, -7.57, -7.16, -7.16, -6.9, -6.9, -6.9, -6.9, -6.46, -6.46, -6.25, -6.25, -6.04, -5.83, -5.83, -5.62, -5.86, -5.64, -5.2, -5.44, -5.23, -5.23, -5.23, -5.02, -4.8, -4.8, -4.6, -4.6, -4.6, -4.6, -4.12, -3.94, -4.16, -3.97, -3.49, -3.32, -3.52, -2.86, -2.89, -2.89, -2.23, -2.4, -1.73, -1.73, -1.63, -1.8, -1.08, 0.0, 0.54, 0.85, 1.74, 1.74, 1.74, 1.74, 1.98, 1.74, 0.99, 0.87, 0.88, 0.0, -1.58, -2.34, -2.39, -1.61, -0.81, 0.0, 1.41, 2.15, 2.81, 2.82, 2.83, 3.8, 4.37, 4.71, 4.71, 4.71, -9.19, -9.19, -8.87, -8.87, -8.87, -8.87, -8.87, -8.87, -8.87, -8.87, -8.59, -8.22, -8.22, -8.22, -8.22, -8.22, -8.22, -7.83, -7.83, -7.83, -7.83, -7.57, -7.57, -7.57, -7.16, -7.16, -7.16, -7.16, -7.16, -7.16, -6.46, -6.25, -6.25, -5.8, -5.83, -5.83, -5.83, -5.62, -5.86, -5.64, -5.2, -5.44, -5.23, -5.23, -5.23, -5.02, -5.26, -4.8, -4.6, -4.6, -4.6, -4.6, -4.12, -3.94, -4.16, -3.97, -3.49, -3.32, -3.52, -2.86, -2.86, -2.89, -2.23, -2.4, -2.4, -1.73, -1.73, -1.65, -1.16, -0.59, 0.0, 0.0, 0.0, 0.0, 0.85, 0.0, 0.0, 0.99, 0.0, 0.0, 0.0, 0.0, -1.6, -2.34, -2.3, -0.79, 0.0, 1.58, 2.85, 3.59, 4.23, 3.58, 3.41, 3.46, 3.61, 4.37, 4.37, 4.37, -8.87, -8.87, -8.87, -8.87, -8.87, -8.87, -8.59, -8.87, -8.87, -8.87, -8.51, -8.22, -8.22, -8.22, -7.96, -7.96, -7.96, -7.57, -7.57, -7.57, -7.57, -7.57, -7.57, -7.57, -7.16, -7.16, -7.16, -7.16, -6.92, -6.92, -6.5, -6.5, -6.5, -6.04, -5.83, -5.83, -5.83, -5.86, -5.86, -5.64, -5.2, -5.44, -5.23, -5.23, -5.23, -5.02, -5.26, -4.8, -4.6, -4.6, -4.6, -4.6, -4.4, -3.94, -4.16, -3.97, -3.97, -3.32, -3.52, -3.35, -2.86, -2.89, -2.89, -2.23, -2.4, -2.23, -2.26, -1.76, -1.7, -0.57, 0.0, 0.0, 0.0, 0.0, 0.0, 0.0, 0.0, 0.0, 0.0, 0.0, 0.0, 0.0, -0.81, -1.58, -0.79, 0.0, 2.36, 3.97, 4.8, 4.88, 5.47, 4.75, 4.17, 3.47, 3.61, 3.4, 3.4, 3.4, -8.87, -8.87, -8.87, -8.87, -8.87, -8.87, -8.59, -8.87, -8.87, -8.87, -8.51, -8.22, -8.22, -8.22, -7.96, -7.96, -7.96, -7.57, -7.57, -7.57, -7.57, -7.57, -7.57, -7.57, -7.16, -7.16, -7.16, -7.16, -6.92, -6.92, -6.5, -6.5, -6.5, -6.04, -5.83, -5.83, -5.83, -5.86, -5.86, -5.64, -5.2, -5.44, -5.23, -5.23, -5.23, -5.02, -5.26, -4.8, -4.6, -4.6, -4.6, -4.6, -4.4, -3.94, -4.16, -3.97, -3.97, -3.32, -3.52, -3.35, -2.86, -2.89, -2.89, -2.23, -2.4, -2.23, -2.26, -1.76, -1.7, -0.57, 0.0, 0.0, 0.0, 0.0, 0.0, 0.0, 0.0, 0.0, 0.0, 0.0, 0.0, 0.0, 0.0, 0.0, 0.0, 0.8, 2.37, 4.03, 5.66, 6.4, 6.36, 6.31, 5.61, 4.61, 3.11, 2.2, 2.2, 2.2]}]